GEFSMW_500_meanwind_054.txt.gz
Wind_Speed
50 54 58 63 68 72 75 79 81 83 85 85 84 82 79 76 74 72 69 67 64 62 59 57 54 52 50 49 48 47 47 49 52 55 59 63 67 72 75 80 87 92 97
53 57 61 66 70 73 77 80 82 84 85 84 83 80 76 74 71 69 67 64 62 59 56 54 52 50 47 46 45 45 43 44 46 49 52 57 62 67 71 76 81 87 93
55 59 64 68 71 74 77 80 82 84 84 82 80 76 73 70 68 65 63 61 59 57 55 53 51 49 47 45 43 42 41 40 42 44 46 51 56 62 67 72 76 81 87
57 61 65 69 72 75 78 81 82 83 82 80 77 74 71 69 66 64 61 59 58 57 55 53 51 49 47 46 44 42 41 40 39 40 42 45 50 57 62 68 72 76 81
59 63 66 70 73 75 78 81 82 82 80 77 74 72 70 67 65 62 60 58 57 56 55 54 53 51 49 48 46 45 43 41 39 38 39 41 45 51 57 62 68 72 76
60 64 67 70 73 76 78 80 81 80 77 74 72 70 68 66 63 60 58 57 56 56 56 55 54 52 51 50 49 48 46 43 41 39 38 39 41 46 52 58 63 68 72
61 64 67 70 73 76 78 79 79 77 75 72 71 69 67 65 62 60 58 58 58 57 57 56 55 54 53 52 50 49 48 46 43 41 39 38 39 42 47 54 60 65 70
62 65 67 70 73 75 77 78 78 75 73 70 68 67 65 63 61 60 60 61 60 60 59 57 55 54 52 51 49 48 48 47 45 43 40 39 38 40 44 50 56 62 67
62 65 68 70 72 75 76 77 76 73 71 69 67 65 64 62 61 60 61 62 62 61 61 59 57 55 52 48 44 42 43 44 44 43 42 40 39 39 41 46 53 59 64
62 65 68 70 72 74 75 75 74 71 69 67 65 64 62 62 61 61 62 62 63 63 62 61 58 54 49 44 39 36 37 38 41 42 41 40 39 39 40 43 49 56 61
62 65 67 69 71 73 74 74 72 69 67 65 63 62 61 61 61 61 63 63 64 64 63 60 56 52 47 41 35 30 28 30 34 38 39 39 38 38 39 41 45 52 58
62 65 67 69 71 72 73 72 70 67 65 63 62 61 61 61 61 61 63 64 65 65 63 60 55 50 46 42 35 27 21 20 25 31 35 36 37 37 37 39 42 48 54
62 64 66 68 70 71 71 70 68 65 63 62 61 60 60 60 61 61 63 64 65 65 63 60 55 50 45 41 36 28 19 12 15 22 28 31 33 35 36 38 40 45 51
62 64 66 67 69 70 70 68 66 64 62 60 60 59 60 60 61 62 63 65 65 64 63 59 55 50 45 40 35 29 21 11 5 13 20 25 28 31 33 36 38 42 48
61 63 65 66 68 69 68 67 65 62 61 59 59 59 59 60 61 62 63 64 65 64 63 60 55 50 44 39 33 28 23 14 2 9 15 19 23 27 31 33 35 38 44
61 63 64 66 67 68 67 65 63 61 60 59 58 58 58 59 60 61 62 63 64 64 63 61 56 51 45 38 31 26 21 14 6 7 12 15 19 23 27 30 33 36 40
61 62 64 65 66 66 66 64 62 60 59 58 57 57 57 58 59 60 62 62 63 63 62 60 57 53 46 38 31 26 21 14 7 6 9 11 15 19 23 26 30 33 36
61 62 63 64 65 65 65 63 61 60 58 57 56 56 56 57 58 59 60 61 62 62 62 60 58 55 50 41 32 26 21 14 8 4 4 7 11 15 20 23 27 30 33
60 61 62 63 64 64 64 62 61 59 58 57 56 55 55 56 57 58 59 60 61 61 61 60 59 56 52 46 36 27 21 14 9 4 1 5 9 12 17 21 24 27 30
60 61 62 63 63 64 63 62 60 59 57 56 55 55 55 55 56 56 57 59 60 60 61 60 59 57 54 49 42 32 24 17 11 6 2 3 6 9 13 18 22 25 28
60 61 61 62 62 63 62 61 60 58 57 56 55 54 54 55 55 55 56 57 58 59 60 60 59 57 54 51 46 39 31 23 16 10 5 3 5 8 11 15 19 23 26
59 60 61 61 61 62 62 61 59 58 56 56 55 54 54 54 54 54 54 55 55 56 57 57 57 56 55 52 48 44 38 31 22 15 9 4 3 7 10 13 17 21 24
59 60 60 60 61 61 61 60 59 57 56 55 54 54 53 54 53 53 53 52 53 54 54 55 55 55 54 53 50 46 42 38 31 22 13 7 3 5 8 11 15 19 23
59 59 60 60 60 60 60 60 58 57 55 54 54 53 52 52 53 52 51 51 51 51 52 53 53 53 53 52 50 49 45 41 36 30 21 12 6 4 7 10 14 18 22
59 59 59 59 59 59 59 59 58 56 54 53 53 52 52 51 52 52 51 50 51 51 52 52 52 51 51 51 51 49 47 44 39 34 28 19 11 5 4 8 13 17 21
58 58 59 58 58 58 58 58 57 56 54 52 51 51 51 50 51 50 51 51 50 50 51 51 51 50 50 50 49 48 47 45 42 38 32 25 17 10 3 5 11 16 20

GEFSMW_500_meanwind_060.txt.gz
Wind_Speed
40 43 46 50 54 58 62 65 69 73 76 80 83 85 85 82 78 74 70 68 66 64 62 61 60 60 59 59 59 58 56 55 55 54 52 52 54 58 63 69 77 86 93
41 45 48 52 56 59 63 67 70 74 77 81 83 84 82 78 74 70 68 66 64 62 61 61 61 61 60 60 59 57 55 54 54 53 52 50 50 54 57 62 69 78 86
43 46 50 54 57 61 64 68 71 74 78 81 82 82 79 76 71 68 65 64 63 61 61 62 62 61 61 60 58 57 56 54 53 53 52 51 50 50 53 57 62 69 78
44 48 52 55 59 62 65 68 72 75 78 80 81 79 76 72 69 65 64 63 62 61 62 63 62 62 61 60 58 57 56 54 52 52 52 52 51 50 49 53 56 62 70
46 49 53 56 59 63 66 69 72 75 78 79 80 77 74 70 67 64 63 62 61 62 63 63 62 61 60 59 57 55 52 50 48 47 48 50 51 50 49 49 53 57 63
47 50 54 57 60 63 66 69 72 75 77 78 78 75 72 68 65 63 62 61 61 62 63 63 62 60 59 57 55 52 48 45 42 41 43 46 48 50 48 47 49 53 57
48 51 54 57 61 64 67 69 72 74 76 77 76 73 70 66 64 62 61 61 61 62 63 62 61 60 58 56 53 49 44 39 36 35 37 41 44 47 47 46 47 49 53
49 52 55 58 61 64 66 69 71 73 75 75 74 71 68 65 63 62 61 61 61 62 63 62 61 59 57 54 51 48 43 37 32 29 30 35 40 44 45 45 45 47 50
50 53 56 58 61 64 66 69 71 72 73 73 72 70 67 64 62 61 61 61 61 62 62 62 60 58 56 53 49 46 42 37 30 23 21 27 33 38 42 43 44 45 47
51 54 56 59 61 64 66 68 70 72 72 72 70 68 65 63 61 60 60 60 61 61 62 62 60 57 55 51 47 44 41 36 28 19 14 17 24 31 36 40 41 43 45
52 54 57 59 61 64 66 68 69 71 71 71 69 67 64 62 61 60 60 60 60 60 61 61 59 57 54 49 46 42 39 33 26 16 8 9 16 23 29 35 38 40 42
52 55 57 59 62 64 66 67 69 70 70 70 68 66 63 61 60 59 59 59 59 60 60 60 59 57 54 50 45 41 36 31 23 14 6 1 8 15 22 28 33 37 40
54 56 58 60 62 64 65 67 68 69 69 69 67 65 62 61 59 58 58 58 58 59 59 60 59 56 54 50 45 40 34 28 21 13 8 3 4 9 16 22 27 32 37
55 57 59 61 62 64 65 67 68 68 69 68 66 64 62 60 59 58 58 57 57 58 58 58 58 56 54 51 46 40 33 26 19 12 7 3 2 7 13 18 22 27 33
57 58 60 61 63 64 65 66 67 68 68 67 65 64 61 59 58 57 57 57 56 57 57 57 57 56 54 51 47 40 34 26 19 12 7 3 1 6 10 15 18 23 29
60 60 61 62 63 64 65 66 67 67 67 66 65 63 61 59 58 57 56 56 56 56 56 56 56 55 54 51 47 42 35 28 20 13 8 4 2 5 9 13 17 21 25
62 63 62 62 63 64 65 66 66 67 67 66 64 62 60 59 57 57 56 55 55 55 55 55 54 54 53 51 48 44 38 30 23 16 10 6 4 4 8 12 16 19 23
63 64 64 64 63 64 65 66 66 66 66 65 64 62 60 58 57 56 55 55 54 54 54 54 53 53 52 50 48 45 41 34 26 19 13 8 6 5 7 11 15 18 21
63 65 66 65 64 64 65 66 66 66 66 65 64 62 59 57 56 55 55 54 54 54 53 53 52 52 52 50 48 46 42 38 31 22 16 11 7 7 7 10 13 17 20
63 65 67 67 65 65 65 65 65 65 65 65 63 62 59 57 56 55 54 54 54 53 53 52 52 51 51 50 48 46 43 40 35 28 20 14 9 7 8 9 12 16 19
62 65 67 68 67 65 65 65 65 65 65 65 64 62 59 57 55 54 54 53 53 53 52 51 51 51 50 49 48 46 44 42 38 33 26 19 13 8 7 9 12 15 18
62 64 66 68 68 66 65 65 65 65 64 64 63 62 59 57 55 54 53 53 52 52 51 50 49 49 49 48 47 46 45 42 40 36 30 23 16 10 6 7 11 14 17
61 63 65 67 68 67 65 65 65 65 64 63 63 62 60 57 55 53 52 52 51 51 50 49 48 48 47 47 46 46 45 43 41 38 33 27 20 13 7 5 9 13 16
61 62 64 66 68 67 66 65 64 64 63 63 62 61 60 57 55 52 52 51 50 50 49 49 48 47 47 46 46 45 44 43 42 39 35 30 24 17 10 5 6 11 15
60 61 63 65 67 67 66 65 64 63 63 62 62 61 59 57 55 53 51 50 50 50 49 49 48 47 46 46 46 46 45 43 42 40 37 32 27 20 13 7 4 8 13
59 60 61 63 65 67 66 65 63 63 62 61 61 60 59 57 54 52 51 51 50 50 49 48 48 47 46 46 45 45 44 43 42 40 37 34 29 23 17 10 3 5 10

GEFSMW_500_meanwind_066.txt.gz
Wind_Speed
36 39 41 43 45 48 50 52 54 57 60 63 66 69 73 77 80 83 84 83 80 76 72 68 66 66 66 66 64 64 64 62 63 63 61 60 61 62 65 67 68 70 74
37 39 42 44 46 49 51 53 55 58 60 63 67 70 73 77 80 82 82 80 76 73 70 67 66 66 66 65 64 64 63 61 61 61 59 56 53 56 60 64 67 70 72
38 40 43 45 48 50 52 54 56 58 61 64 67 71 74 77 80 81 80 78 74 71 68 66 66 65 65 64 63 63 61 59 56 56 55 53 48 46 51 58 64 68 70
39 41 43 46 48 51 53 55 57 59 61 65 68 71 74 77 79 80 78 75 72 70 67 66 65 64 64 63 62 61 59 58 55 52 49 47 45 41 41 49 57 63 67
40 42 44 47 49 52 53 55 57 60 62 65 68 71 74 77 79 79 76 73 70 68 66 65 64 64 63 62 61 59 57 56 54 51 47 43 39 36 35 39 48 56 62
41 43 46 48 51 53 55 57 59 61 63 66 69 72 74 77 78 77 75 71 69 67 65 64 63 63 63 61 59 57 55 54 51 48 45 42 36 32 29 30 38 47 55
41 44 47 50 53 55 57 59 60 62 64 67 69 72 74 76 77 76 73 70 67 65 64 63 62 62 62 60 58 56 54 52 48 45 42 39 35 30 25 23 28 37 47
43 46 49 52 54 57 60 61 62 63 65 68 70 72 74 76 76 75 72 69 67 65 63 63 62 61 61 59 57 55 53 50 47 43 39 36 32 27 20 17 20 28 38
44 47 50 53 56 59 62 64 65 65 66 68 70 72 74 75 75 74 71 68 66 64 63 62 61 61 60 58 56 54 52 49 45 41 37 33 28 23 17 11 13 20 29
46 49 52 54 57 60 63 66 67 67 67 69 71 72 74 75 74 73 70 67 65 63 62 61 60 60 59 57 55 53 51 48 44 40 34 30 26 20 15 9 8 13 21
47 51 53 56 59 61 64 67 69 69 69 69 71 72 73 74 74 72 69 67 65 63 61 61 60 59 58 56 54 52 50 47 43 38 32 28 24 19 14 9 7 10 17
48 51 55 57 60 62 65 67 70 71 71 70 71 72 73 74 73 71 69 66 64 63 61 60 59 58 58 56 54 51 49 46 42 37 31 26 23 19 14 10 8 9 13
48 52 55 58 60 63 66 68 70 72 72 71 71 72 73 73 73 71 68 65 63 62 61 59 58 57 57 55 53 51 49 46 43 38 31 26 23 19 15 12 9 9 12
49 52 55 58 61 63 66 68 70 73 74 73 72 72 72 72 72 70 67 65 63 61 60 59 58 57 56 55 53 51 48 46 43 39 33 27 23 19 15 12 10 9 11
49 52 55 58 62 64 66 68 70 73 74 73 72 72 72 72 72 70 67 64 62 61 60 58 57 56 55 55 53 51 48 46 43 40 35 29 24 20 16 13 10 10 11
50 52 55 58 61 64 66 68 70 72 74 74 73 72 72 72 71 70 67 64 62 60 59 58 57 56 55 54 53 51 49 47 44 41 36 31 25 21 18 15 12 11 11
51 53 55 58 61 64 66 68 70 72 74 74 73 72 72 71 70 69 66 64 61 59 58 57 56 55 54 53 52 51 49 47 44 41 37 32 27 22 19 16 13 12 12
52 53 55 57 60 63 66 67 70 71 73 74 73 72 72 71 70 69 66 63 61 59 58 56 55 54 53 53 52 50 48 47 45 42 39 34 29 24 19 16 14 12 12
52 54 55 57 60 63 66 67 69 71 72 74 73 72 71 70 69 68 66 63 61 59 57 56 55 53 53 52 52 50 48 47 45 43 40 36 31 25 21 17 14 12 12
53 54 56 57 59 62 65 67 68 70 71 73 73 72 71 70 69 68 66 63 61 58 57 55 55 53 52 52 52 51 49 47 45 44 42 38 33 27 22 18 14 11 11
53 55 56 57 59 61 64 66 68 69 70 72 73 72 71 70 69 67 66 63 60 58 56 55 54 53 51 51 51 51 50 48 46 44 42 39 34 29 23 18 14 11 10
54 56 57 57 59 60 63 65 67 68 70 71 72 71 70 69 68 67 65 63 60 58 56 54 54 52 51 50 50 50 49 48 46 45 43 40 35 30 24 19 14 10 9
55 56 57 57 58 60 61 64 66 67 68 69 70 70 69 68 67 66 65 63 60 58 55 54 53 51 50 50 49 49 49 48 46 45 43 41 37 31 25 20 15 10 8
55 56 57 58 58 59 61 63 64 66 67 68 69 69 68 67 67 65 64 63 61 58 55 53 52 51 50 49 49 48 48 47 46 45 42 40 37 32 26 21 15 11 7
56 56 57 58 58 59 60 62 63 64 65 66 67 68 67 66 66 65 64 62 61 58 56 53 52 50 49 49 49 49 49 48 47 45 42 39 36 32 27 22 16 11 7
57 57 57 58 58 59 60 61 62 63 64 64 65 66 66 65 64 63 63 62 60 58 55 53 52 50 49 49 48 49 49 48 47 46 43 38 34 32 28 22 17 12 7

GEFSMW_500_meanwind_072.txt.gz
Wind_Speed
19 22 24 26 28 30 33 35 37 39 42 44 47 49 51 53 55 57 59 61 64 68 71 74 77 77 76 74 72 69 68 67 66 65 61 57 57 57 56 56 57 58 62
19 22 24 27 29 31 33 36 38 41 43 46 48 51 53 55 57 58 60 63 66 69 72 75 76 76 74 72 70 68 67 65 65 64 62 58 53 50 50 51 52 53 55
20 22 25 27 30 32 35 37 40 42 45 47 50 52 55 57 59 61 62 64 67 70 72 75 75 74 72 70 68 67 67 64 62 62 62 61 58 52 46 46 46 46 47
21 23 25 28 31 33 36 39 42 44 47 49 52 54 57 59 61 62 64 66 68 71 73 75 74 73 71 69 67 66 66 64 60 58 58 58 58 57 50 43 41 41 40
22 24 26 29 32 35 37 40 43 46 49 51 54 56 59 61 63 64 65 67 69 71 73 74 73 71 69 67 66 65 64 63 60 58 56 54 53 53 52 46 39 35 34
24 26 28 31 33 36 39 42 45 48 51 53 55 58 60 62 64 66 66 68 70 71 73 73 72 70 68 66 64 64 63 61 59 57 55 54 52 49 47 45 39 33 29
27 28 31 33 35 38 41 43 46 49 52 55 57 59 62 64 66 67 68 68 70 71 72 72 71 68 66 65 63 62 61 60 57 55 54 53 51 48 45 42 37 32 27
29 31 33 35 37 40 42 45 47 50 53 56 58 61 63 65 67 68 69 69 70 71 71 71 69 67 65 63 62 61 60 59 56 54 53 52 49 46 43 40 36 31 26
31 33 35 37 39 42 44 46 49 51 54 57 59 62 64 66 68 70 70 70 70 71 71 70 68 66 64 63 61 60 59 57 55 53 52 50 48 45 41 37 34 31 26
34 35 37 39 42 44 46 48 50 52 54 57 60 62 65 67 69 71 71 70 70 71 70 69 68 65 63 62 60 59 58 57 55 52 51 49 47 44 40 35 32 30 27
37 38 40 42 44 46 48 50 52 53 55 58 60 63 66 68 70 71 72 71 70 70 70 68 67 65 62 60 59 58 57 56 54 52 50 49 46 43 39 34 31 28 26
39 41 42 44 46 48 50 51 53 54 56 58 61 63 66 68 70 71 72 71 70 70 69 68 66 64 62 60 58 57 56 55 53 51 49 48 46 43 39 34 30 27 25
42 43 45 47 48 50 51 53 54 56 57 58 61 63 66 68 70 71 72 72 70 69 69 67 66 64 61 59 58 57 55 54 53 51 49 47 45 42 39 35 30 27 24
45 46 47 49 50 52 53 54 55 57 57 59 60 63 66 68 70 71 72 72 70 69 68 67 65 63 61 59 57 56 55 54 53 51 49 48 45 42 38 34 30 26 24
48 49 50 51 52 53 55 55 56 57 58 59 60 63 65 68 70 71 71 71 70 69 68 66 64 62 60 58 57 55 54 53 52 51 49 47 46 42 38 34 30 27 24
51 52 52 53 54 55 56 57 57 58 58 59 60 62 65 67 69 70 70 70 70 69 67 66 64 62 60 58 57 56 54 53 52 51 49 47 45 42 38 34 31 27 24
53 53 54 55 56 56 57 57 57 58 59 59 60 62 64 66 68 70 70 70 69 68 66 65 63 61 59 57 56 55 54 53 52 52 50 48 45 41 37 33 30 27 23
54 55 56 56 57 57 58 58 57 58 59 59 60 62 64 65 67 68 69 69 68 67 66 64 62 60 59 57 55 54 54 53 52 52 51 48 45 41 37 33 29 27 23
56 57 57 58 58 58 58 58 58 59 59 60 60 62 63 64 66 67 67 68 67 66 65 64 62 60 58 57 55 54 53 52 52 51 51 49 45 41 36 33 30 27 23
58 59 59 59 59 59 59 59 59 60 60 60 60 61 62 63 65 66 66 66 66 65 64 63 62 60 58 56 55 53 53 52 51 51 50 49 45 41 36 32 29 26 22
62 62 62 61 61 61 61 61 60 60 61 60 60 61 62 63 63 64 65 65 65 64 63 62 61 60 57 55 54 53 53 52 51 51 50 48 44 40 35 32 29 25 21
64 65 65 64 63 63 64 63 62 62 62 61 60 61 62 62 62 63 63 63 63 63 62 61 60 59 57 55 54 52 52 52 51 50 49 47 43 39 35 32 29 25 20
66 66 66 65 64 64 64 64 63 63 62 61 61 61 61 62 61 61 61 61 61 61 61 60 59 58 57 55 53 52 51 51 51 50 49 47 43 39 35 31 28 24 20
66 66 66 65 64 64 64 63 63 63 62 61 60 61 61 61 60 59 60 60 59 59 59 59 58 57 56 54 52 51 50 50 50 49 47 46 43 39 35 31 27 24 20
65 65 64 64 63 62 62 61 61 61 60 60 59 59 59 59 58 58 58 58 58 58 58 57 57 56 54 53 52 50 49 49 49 47 46 44 42 39 34 31 27 24 20
62 62 61 60 60 59 58 58 58 58 58 58 58 58 57 57 56 56 56 57 56 56 56 56 56 55 54 53 51 49 49 48 48 46 45 43 42 38 34 30 27 23 19

GEFSMW_500_meanwind_078.txt.gz
Wind_Speed
20 21 22 23 24 25 26 27 28 30 31 33 35 38 40 42 44 46 48 50 51 53 54 55 57 59 61 63 65 67 69 72 74 75 76 75 74 73 72 71 70 69 67
22 23 24 25 26 27 28 29 30 32 33 35 37 39 42 44 46 48 50 52 53 55 56 57 59 61 63 65 67 69 71 73 75 77 77 75 71 69 67 67 67 66 65
24 25 26 28 29 29 30 32 33 34 36 37 40 42 44 46 48 50 52 53 55 56 58 59 61 63 65 67 68 70 72 74 76 77 78 77 74 70 65 63 63 63 61
26 27 28 30 31 32 33 34 36 37 39 40 42 45 47 48 50 52 54 55 57 58 60 61 63 65 67 68 70 72 73 74 75 76 76 76 75 73 68 62 60 59 59
28 30 31 32 33 35 36 37 38 40 42 44 45 47 49 51 52 54 56 57 58 60 61 63 64 66 68 70 71 73 74 75 75 75 74 73 72 72 72 66 60 56 56
31 32 33 35 36 37 39 40 41 43 45 46 48 50 51 53 55 56 57 59 60 61 62 64 66 67 69 71 72 73 74 75 74 74 73 72 71 70 70 68 62 57 53
33 35 36 37 39 40 42 43 44 46 48 49 51 52 54 55 57 58 59 60 61 63 64 65 66 68 70 72 72 73 74 74 73 73 72 71 69 69 68 67 63 58 53
36 37 39 40 42 43 44 46 47 49 50 52 53 55 56 57 58 60 61 61 62 64 65 66 67 69 71 72 73 73 73 73 72 71 70 69 68 67 67 66 64 60 53
39 40 42 43 45 46 47 49 50 52 53 55 56 57 58 59 60 61 62 63 64 65 66 67 68 70 71 72 72 72 73 72 71 70 69 67 66 66 65 64 63 62 56
42 44 46 47 48 49 51 52 53 55 56 57 58 59 60 61 62 62 63 64 65 66 67 67 68 70 71 72 72 72 72 71 70 69 67 66 65 64 63 62 61 60 58
47 48 49 50 51 52 53 55 56 57 58 59 60 60 61 62 63 63 64 65 65 67 67 67 69 71 71 72 72 71 71 70 69 68 66 65 64 63 62 61 59 57 56
49 50 51 52 53 54 55 57 57 58 60 61 62 62 63 64 64 64 65 65 66 67 67 68 69 70 71 71 71 70 70 69 68 67 65 64 63 62 61 60 57 55 54
50 52 53 53 54 56 57 58 59 60 61 62 63 63 64 65 65 65 65 66 66 67 67 68 69 70 70 71 70 70 69 68 67 66 64 63 62 60 60 59 56 54 52
52 53 54 55 56 57 58 59 60 61 62 63 63 64 65 66 65 65 66 66 66 67 67 68 68 69 70 70 69 69 68 67 66 64 63 62 61 60 59 57 55 52 50
54 55 56 57 58 59 59 60 61 62 62 63 64 65 66 66 66 66 65 65 65 66 67 67 67 68 68 69 68 68 67 66 65 63 62 61 61 59 58 57 54 51 49
57 57 58 59 60 60 61 61 62 63 64 65 66 66 67 67 67 66 65 65 65 65 65 66 66 66 67 67 67 67 66 65 64 62 61 60 59 58 57 56 53 50 48
59 60 60 61 62 62 63 64 65 66 66 67 67 68 68 67 66 65 65 64 64 64 64 64 64 65 66 66 66 66 65 64 63 62 61 59 58 57 55 54 51 48 46
62 63 64 64 64 65 66 67 66 66 67 68 68 68 67 66 65 64 63 63 63 63 63 63 63 63 64 65 65 65 64 63 62 62 61 59 57 56 54 53 50 47 44
65 66 66 67 66 67 68 68 68 68 68 68 68 68 66 64 63 62 61 61 61 61 61 61 61 62 63 63 64 63 63 62 61 61 60 59 56 54 53 52 49 45 42
66 67 67 67 68 68 69 69 68 67 67 66 65 63 61 60 59 59 59 58 58 58 58 59 59 60 60 61 62 62 62 61 60 59 58 57 55 53 51 50 48 44 41
66 66 67 67 67 67 66 65 64 63 62 61 59 58 57 56 56 56 55 55 54 54 55 56 57 58 58 59 61 61 60 60 59 58 57 55 54 51 49 49 47 44 40
64 64 64 63 62 62 61 59 58 58 57 56 56 55 55 54 54 54 53 52 52 52 54 54 55 56 57 57 59 59 59 59 58 57 56 54 52 50 47 46 45 43 40
61 60 59 57 56 56 56 54 54 54 53 54 54 54 53 53 54 53 52 51 51 51 51 52 53 54 55 56 57 58 57 57 57 56 54 52 51 48 46 45 44 42 38
56 55 53 53 52 52 52 53 53 53 53 54 54 53 53 53 53 52 50 49 49 49 49 50 51 52 52 54 55 56 56 55 55 54 52 51 49 47 45 44 43 41 37
53 53 53 52 52 53 53 54 54 54 54 54 54 54 54 53 52 51 50 49 47 47 47 48 49 50 51 52 53 54 54 54 53 52 51 49 48 46 45 43 42 39 35
53 53 53 53 53 53 54 55 55 55 55 55 55 54 54 53 52 51 50 48 47 46 46 47 47 48 49 50 51 52 52 52 51 51 49 48 47 45 44 42 40 37 34

GEFSMW_500_meanwind_084.txt.gz
Wind_Speed
26 26 26 27 27 28 29 29 30 31 32 33 34 35 36 38 40 41 43 44 46 47 49 50 52 53 54 55 56 57 58 58 58 58 58 58 59 61 62 64 66 68 69
27 27 28 28 29 30 31 32 32 33 34 36 37 38 39 41 43 44 46 48 49 50 51 53 54 55 56 57 58 59 59 60 60 60 60 59 60 60 63 65 67 69 71
28 29 29 30 31 32 33 34 35 36 37 39 40 41 43 44 46 48 49 51 52 53 54 55 56 57 58 59 60 60 60 61 61 61 61 61 61 61 63 65 68 70 72
29 30 31 32 33 35 36 37 38 39 40 42 43 44 46 47 49 50 52 53 54 55 56 57 59 59 60 60 60 61 61 61 61 61 61 62 63 64 63 65 68 71 72
30 32 33 34 36 37 38 40 41 42 44 45 47 48 49 50 52 53 54 56 57 58 58 59 61 61 61 61 62 62 61 62 62 62 62 63 64 65 65 66 68 70 72
32 33 35 36 38 39 41 42 43 44 46 48 49 51 52 53 54 55 57 58 59 60 60 61 63 62 62 63 63 63 62 62 62 63 63 64 65 66 67 67 68 70 70
33 35 36 38 39 41 43 44 46 47 49 51 52 53 54 56 56 58 59 60 60 61 62 63 64 63 64 64 64 64 63 62 63 64 65 65 66 67 68 68 69 70 69
35 36 38 39 41 43 44 46 47 49 51 53 54 55 56 57 58 59 60 61 61 62 63 64 65 65 65 65 64 64 63 64 64 64 65 66 66 67 68 69 70 71 69
38 39 41 42 44 44 46 47 49 50 52 54 55 55 57 58 59 60 61 61 62 64 65 65 65 65 65 65 64 64 64 64 65 65 65 66 66 67 68 69 70 71 71
41 42 43 44 45 46 47 48 50 51 52 54 55 56 57 58 59 60 61 62 64 65 66 66 66 66 66 65 65 64 64 64 65 64 65 65 66 67 67 69 70 71 71
42 43 44 45 46 47 48 49 50 51 52 54 55 56 57 58 59 61 62 64 65 65 66 66 67 66 66 65 64 64 64 64 64 63 64 65 66 66 67 68 69 69 70
46 46 46 47 47 48 49 50 51 53 54 55 56 57 58 59 61 62 64 66 66 67 67 68 67 66 65 65 64 64 64 63 63 64 64 65 65 65 66 67 67 68 68
48 49 49 49 49 50 51 52 53 54 56 57 58 59 60 62 63 65 66 66 67 67 67 67 67 66 65 64 64 63 63 63 63 64 64 64 64 64 65 66 66 66 66
50 50 50 50 50 51 52 53 54 56 57 59 60 61 62 64 65 66 66 67 67 66 66 65 64 63 63 63 62 61 61 62 62 63 64 63 63 64 64 65 65 65 64
50 51 51 51 52 52 53 55 56 58 60 61 62 63 64 65 65 65 64 64 63 63 62 62 60 59 59 59 59 59 60 61 61 62 63 62 62 63 63 63 63 63 63
52 53 53 54 54 55 56 57 58 60 61 62 62 62 63 63 62 62 61 60 60 59 59 58 57 57 56 56 57 57 58 59 60 60 60 60 61 62 62 61 62 62 61
54 54 55 56 57 58 59 59 59 59 60 60 60 59 58 58 57 57 57 56 57 58 57 56 55 54 54 55 55 56 56 57 57 58 58 59 60 61 60 59 60 59 58
56 56 57 57 58 59 59 58 58 57 57 56 55 55 54 54 54 54 54 55 56 56 54 54 53 53 54 55 55 56 56 55 55 56 57 58 59 59 59 58 58 57 55
58 59 59 59 59 58 57 56 55 54 54 53 53 53 53 52 52 53 53 54 55 54 54 54 53 53 53 54 55 54 55 54 54 55 56 57 57 57 57 57 56 55 53
60 60 60 59 57 57 56 55 54 54 53 53 53 53 54 54 54 54 55 54 54 54 54 53 53 53 53 53 53 53 53 53 53 54 55 55 56 56 55 55 54 53 51
61 61 60 58 57 56 56 55 54 54 53 53 54 54 55 55 55 55 54 54 54 54 54 53 52 52 52 51 51 51 51 52 52 52 53 53 54 54 53 53 52 51 50
62 61 60 58 57 56 56 55 55 54 54 54 55 55 55 55 55 55 55 55 54 54 53 52 52 51 51 50 50 50 50 50 50 50 51 52 52 52 51 50 49 49 48
61 60 59 57 56 56 56 56 55 55 55 55 56 55 55 55 55 55 54 53 53 53 52 51 51 50 49 49 48 48 49 49 48 48 49 50 50 50 49 48 48 47 46
61 60 58 57 56 56 56 56 56 56 56 55 55 54 54 54 54 53 53 53 52 52 51 49 49 48 47 47 46 47 47 47 46 46 47 48 48 48 47 46 46 45 44
60 59 58 56 55 55 55 56 56 55 55 55 54 54 54 54 53 52 52 52 51 50 49 48 47 46 45 44 45 45 45 44 43 44 45 46 46 45 45 44 43 42 40
60 58 57 56 56 55 55 56 56 55 55 54 54 54 54 53 52 51 50 49 49 47 46 46 45 43 42 43 43 42 41 41 41 41 42 43 43 43 42 41 40 39 37

GEFSMW_500_meanwind_090.txt.gz
Wind_Speed
28 28 28 29 30 31 32 33 35 36 38 38 39 40 40 41 41 42 43 45 47 48 49 50 51 53 54 54 56 57 57 58 59 60 59 59 60 60 60 60 60 60 60
28 28 28 29 31 32 33 35 36 37 39 40 41 42 43 43 44 45 47 49 50 52 53 54 55 56 57 58 59 60 60 61 61 62 62 61 61 61 60 61 61 62 62
28 29 29 30 31 32 34 36 37 38 39 41 43 44 45 46 47 49 51 52 53 55 56 57 59 60 60 61 62 63 63 63 63 63 64 64 63 62 61 60 61 62 62
28 29 30 31 32 33 35 36 38 39 40 42 44 46 47 48 49 52 53 54 56 58 59 61 62 63 63 64 64 65 65 65 65 65 64 65 64 64 63 61 61 62 63
29 29 30 32 33 34 35 37 39 40 42 44 45 47 49 50 52 54 55 57 58 60 61 63 64 65 66 66 66 66 66 66 66 66 65 65 65 65 64 63 63 63 63
30 31 31 32 34 35 36 38 40 42 44 46 48 50 51 53 55 56 58 60 61 62 63 64 65 67 67 68 68 68 68 68 67 67 66 65 66 65 65 65 64 64 63
31 32 33 34 36 37 38 40 42 44 46 48 50 52 53 55 57 58 60 62 63 63 64 65 66 67 67 68 69 69 68 68 68 68 67 67 66 66 66 66 65 64 64
34 35 36 37 37 38 40 41 43 45 47 49 50 52 54 56 57 59 61 62 63 64 66 67 67 67 67 68 69 69 69 69 69 69 68 68 67 67 67 66 66 65 64
35 36 37 37 39 40 41 43 45 46 48 50 52 53 55 57 58 60 62 63 64 66 67 68 68 68 68 69 70 70 70 70 70 69 69 68 68 68 68 67 66 66 65
36 37 38 39 40 42 43 44 46 48 49 51 53 55 56 58 59 61 62 63 64 65 67 68 68 69 69 70 71 71 71 71 71 71 70 68 68 69 68 66 66 67 66
39 40 41 42 43 43 45 46 48 49 51 52 54 55 56 58 59 61 62 63 65 66 67 68 70 71 71 71 71 71 71 71 71 71 70 68 68 67 67 66 66 66 67
42 43 44 44 45 46 48 49 50 51 53 54 55 57 58 59 60 61 63 64 65 66 68 69 70 70 70 69 69 68 69 69 68 67 67 66 67 67 67 66 66 66 67
46 46 47 48 49 50 52 53 53 54 56 56 57 58 59 60 61 62 63 64 64 64 65 66 66 66 67 67 67 66 66 66 66 66 65 65 66 66 65 65 66 66 67
49 50 51 52 53 54 55 56 57 58 59 60 60 61 61 62 62 62 62 62 62 62 62 62 63 63 64 64 64 64 64 64 64 64 63 63 63 63 64 65 65 65 65
53 54 55 56 57 58 59 60 61 62 62 63 63 63 63 62 61 60 60 60 60 60 61 61 61 61 61 61 62 62 62 62 62 63 62 61 61 62 63 63 63 64 64
57 58 60 61 62 62 63 63 64 64 64 64 64 63 62 61 60 59 59 59 59 60 60 60 61 61 61 61 62 62 62 61 62 61 60 59 59 60 61 61 61 62 62
61 63 64 65 66 67 67 67 67 66 66 65 64 63 61 60 60 59 59 59 60 60 60 61 61 61 61 61 61 61 60 59 60 59 59 58 58 59 59 59 60 59 60
66 67 68 69 69 69 69 69 69 68 66 65 64 62 61 60 60 59 59 60 60 61 60 60 60 60 59 59 58 59 58 58 57 56 56 55 56 56 58 58 58 57 57
70 71 72 72 72 71 71 70 69 68 66 65 64 62 61 61 60 60 60 60 60 59 59 58 58 58 57 56 56 57 57 56 55 54 54 54 54 55 56 55 55 55 55
73 74 74 74 73 73 72 70 68 66 65 64 63 62 61 60 60 59 59 58 58 58 57 57 57 56 55 55 55 55 55 54 53 52 52 52 52 52 53 53 52 53 53
76 76 75 75 73 72 71 69 67 65 64 63 61 60 59 59 58 57 57 57 56 56 55 55 54 53 53 52 52 52 52 51 50 50 50 50 49 50 50 50 50 50 50
76 76 75 73 71 70 69 66 65 63 62 61 59 58 58 57 57 56 55 54 54 53 53 52 51 50 50 49 49 49 49 48 48 47 47 47 46 47 47 48 48 48 48
75 74 73 71 68 67 66 64 63 61 60 59 58 57 56 56 55 55 53 53 52 52 50 49 48 47 46 46 46 46 46 46 45 44 44 43 43 44 44 45 45 45 45
73 71 70 68 65 63 62 62 61 60 58 57 56 55 54 53 53 52 52 51 51 49 48 47 46 44 44 45 45 45 44 44 44 42 41 41 41 41 41 42 42 42 42
70 68 67 65 63 61 60 60 59 58 57 55 54 53 52 51 50 50 49 49 48 47 46 45 45 44 44 45 44 44 43 42 41 40 39 39 39 39 39 39 39 39 39
66 65 63 62 61 59 58 57 56 56 54 53 51 50 49 49 48 47 46 45 45 45 45 45 45 44 44 43 43 42 41 40 39 38 37 37 36 37 36 36 36 37 36

GEFSMW_500_meanwind_096.txt.gz
Wind_Speed
18 19 20 22 23 24 25 26 27 29 31 33 34 36 37 38 39 40 42 44 46 48 49 50 51 52 53 54 55 56 57 58 60 60 60 59 59 59 59 59 59 59 59
19 20 21 22 24 25 26 28 29 30 32 34 36 36 38 38 40 42 44 46 48 50 51 52 53 55 56 57 58 59 60 61 63 63 64 63 61 61 61 62 62 62 62
21 22 23 24 25 26 27 29 30 32 33 35 36 38 39 40 42 44 46 47 49 51 53 54 56 57 58 59 60 62 63 64 64 65 66 66 64 64 63 63 63 63 63
23 24 24 25 26 27 28 30 31 32 34 35 37 38 40 41 43 46 47 49 51 52 54 55 57 59 60 61 63 64 65 66 66 66 67 68 68 68 66 64 64 64 64
23 25 26 27 27 28 29 31 32 33 34 36 38 39 41 42 44 46 48 50 51 53 55 56 58 60 61 62 64 65 66 67 67 68 68 69 69 69 70 67 66 66 65
25 26 27 28 29 30 31 32 33 34 36 37 39 40 42 44 45 47 49 51 53 54 56 58 59 61 62 63 65 66 67 68 68 69 70 70 70 70 70 70 69 68 66
26 27 27 28 30 31 32 33 35 36 38 40 41 43 44 46 48 49 51 53 54 56 58 60 61 62 64 65 66 67 67 68 69 69 70 70 70 70 70 71 70 69 67
26 27 29 31 32 33 35 37 38 40 41 43 45 47 48 50 51 53 55 56 57 59 60 62 63 64 65 66 67 67 68 69 69 70 70 71 71 71 71 71 71 70 69
29 30 32 34 35 37 39 40 42 43 45 47 48 50 52 54 56 57 59 60 61 62 63 64 65 65 66 67 68 68 69 69 70 70 71 71 71 71 71 71 72 72 71
32 34 35 37 39 41 43 45 47 48 50 52 53 55 57 59 60 62 63 64 65 65 66 66 67 67 68 69 70 70 69 70 69 70 70 69 69 70 70 70 71 71 72
36 38 40 42 44 46 48 50 51 53 55 57 59 60 62 63 65 66 67 67 68 68 68 68 69 69 69 69 69 69 69 69 69 69 69 68 68 69 69 69 69 69 68
41 43 45 47 49 51 53 55 57 59 61 63 65 66 67 69 69 70 70 70 70 70 70 70 70 70 69 69 69 68 68 69 68 68 69 68 68 69 69 69 69 68 67
46 48 50 52 54 57 59 61 63 65 67 68 69 70 71 72 73 73 72 72 72 71 71 71 71 70 69 69 68 68 68 68 68 67 68 67 68 68 67 68 67 67 66
50 53 55 57 60 62 64 67 69 70 71 72 73 74 74 75 75 74 74 73 72 71 71 71 70 69 69 68 68 68 67 67 66 66 66 66 66 66 66 66 65 64 64
54 57 60 62 65 67 69 71 73 74 75 75 76 76 76 76 76 75 74 73 72 71 70 70 69 68 67 67 67 67 66 65 64 64 64 64 65 64 63 63 62 62 62
58 62 64 67 69 72 74 75 76 77 78 78 78 78 77 76 75 73 72 71 70 69 68 67 66 65 65 65 65 64 64 63 62 61 61 61 60 60 61 60 60 60 60
63 66 69 71 73 75 77 79 79 80 80 79 79 78 76 74 72 71 70 68 67 67 66 65 64 62 62 62 62 62 61 60 59 58 57 57 57 58 58 58 59 59 58
68 70 73 75 77 79 80 81 81 81 80 79 77 75 73 71 69 68 66 66 65 63 63 61 60 59 59 59 58 57 57 56 55 55 55 54 54 54 54 55 55 55 55
71 74 76 79 80 82 82 82 81 79 78 75 73 70 69 67 65 63 62 61 60 59 59 57 57 56 55 55 54 54 53 53 53 53 52 52 51 52 53 53 52 52 52
75 77 79 81 82 82 82 80 78 76 74 71 69 66 64 62 60 59 58 58 57 56 55 53 53 52 52 52 51 51 51 50 50 49 49 49 49 50 50 50 50 50 50
78 80 81 81 81 80 79 77 74 72 70 67 64 62 59 58 57 56 55 55 54 53 51 50 50 50 50 49 49 49 49 48 47 47 46 47 48 48 48 48 48 48 49
79 80 81 80 78 76 75 73 70 68 65 63 60 57 56 55 54 54 53 52 51 49 48 47 47 47 47 47 47 46 46 46 45 44 44 45 46 46 46 46 46 47 47
79 80 79 77 74 72 71 69 66 64 61 59 56 55 53 52 52 52 50 49 47 46 45 45 44 44 44 44 44 43 43 43 43 43 43 43 44 44 44 44 44 45 45
78 77 76 74 70 68 66 65 63 61 59 57 55 53 52 51 50 49 47 46 45 44 43 42 42 41 41 41 41 41 41 41 41 41 41 41 41 42 42 42 42 42 42
75 74 72 70 68 65 63 61 60 59 57 55 53 51 49 48 46 45 44 43 42 42 42 41 41 40 39 39 39 39 38 38 38 39 39 39 39 39 39 39 39 40 40
72 70 69 67 65 63 60 58 58 57 55 53 50 48 46 45 44 42 41 41 41 40 40 41 40 39 39 38 37 37 37 37 37 37 36 36 36 37 37 37 37 38 37

GEFSMW_500_meanwind_102.txt.gz
Wind_Speed
21 22 22 23 23 23 24 25 26 27 28 29 30 32 33 35 36 38 40 42 43 45 46 47 48 50 51 52 53 54 55 56 57 58 58 59 59 59 59 60 60 61 61
22 23 23 23 24 24 25 26 26 28 29 30 32 33 34 36 38 39 41 43 44 46 47 49 50 51 53 54 55 57 58 58 60 61 62 61 60 60 61 62 62 63 63
23 23 24 24 25 26 26 27 28 29 30 31 32 33 35 36 38 40 42 44 46 47 49 51 52 54 55 56 57 59 60 61 62 64 65 65 63 63 63 63 64 64 65
24 24 25 25 26 27 28 29 29 30 31 32 34 35 36 37 39 41 43 45 47 49 51 52 54 56 57 58 60 61 63 64 65 65 67 68 68 68 66 64 65 66 66
24 25 26 26 27 28 28 29 30 32 33 35 36 38 39 41 42 44 46 48 50 52 54 55 57 59 60 61 63 64 66 67 68 69 69 70 71 72 72 69 68 68 68
25 26 27 28 29 30 31 32 33 35 37 38 40 41 43 45 46 48 50 52 54 56 58 60 61 63 64 65 67 68 69 70 71 72 73 74 74 74 75 74 72 71 70
26 27 29 30 31 32 33 35 36 38 40 41 43 45 47 48 50 52 54 55 57 59 62 64 66 68 69 71 72 73 74 75 75 76 77 77 77 77 78 78 76 76 74
28 29 31 32 33 34 36 38 39 40 42 44 46 48 51 52 54 57 59 61 63 65 68 70 71 73 74 75 76 77 77 78 78 79 79 80 80 80 80 80 80 80 77
30 31 33 34 36 38 40 41 43 44 46 49 51 53 56 58 60 63 65 68 70 72 74 75 76 77 78 79 79 80 80 81 81 81 82 82 82 83 83 83 83 82 80
32 34 36 38 39 42 44 46 48 50 52 54 56 58 61 63 66 69 71 73 75 77 78 79 80 81 81 82 82 82 82 83 83 83 83 83 83 83 83 83 83 83 82
36 38 39 42 44 46 49 51 53 55 58 60 62 64 67 69 72 74 76 78 79 81 81 82 83 83 83 84 84 84 83 83 83 83 83 83 83 83 83 83 82 82 81
39 41 44 46 48 51 53 56 58 60 63 65 67 69 72 75 77 79 81 82 83 84 84 85 85 85 85 84 84 83 82 81 81 80 81 81 81 82 81 80 79 79 78
43 46 48 50 53 55 58 60 63 65 67 70 72 75 77 80 82 83 84 84 85 84 84 84 84 84 83 82 81 80 79 78 77 76 77 76 76 76 75 75 74 74 74
47 49 52 54 57 60 62 64 67 69 72 74 77 79 81 83 84 84 84 84 83 83 83 82 82 80 79 78 77 75 74 73 72 71 71 70 70 70 70 70 69 69 69
51 53 56 59 61 63 66 68 71 73 76 78 80 82 83 84 84 83 83 82 81 81 80 78 76 75 73 71 70 69 68 67 66 65 65 65 64 64 64 64 64 65 65
54 57 60 62 65 67 70 72 74 76 79 81 82 83 83 83 83 82 82 81 79 77 75 73 71 69 66 65 64 64 63 61 60 60 59 59 59 59 60 60 61 62 61
57 60 63 66 68 71 73 75 77 79 81 82 83 83 83 82 82 81 80 77 75 72 70 67 65 62 60 60 60 59 58 57 56 55 54 53 54 55 56 56 57 58 58
61 63 66 69 71 74 75 77 79 80 82 82 82 82 82 82 80 78 75 72 69 67 64 61 59 57 55 55 55 54 53 51 50 50 50 50 50 51 52 52 52 53 54
64 67 70 72 74 75 77 79 80 82 82 82 82 81 81 79 76 73 69 67 64 61 59 57 55 53 51 51 50 49 48 47 46 46 46 47 47 48 49 49 49 49 49
67 70 72 74 75 77 79 80 82 83 83 82 81 79 77 75 72 68 65 63 60 57 55 53 51 50 49 47 47 46 45 44 43 42 43 44 45 45 46 46 46 46 46
70 72 74 75 77 79 80 82 82 82 82 80 78 76 73 70 67 65 62 60 57 54 52 51 49 48 47 45 45 45 44 43 42 41 41 41 42 43 43 44 44 44 44
72 74 75 76 78 80 81 82 81 81 79 77 75 71 68 65 63 61 59 56 54 52 50 48 46 45 44 44 43 43 42 42 41 40 40 40 40 41 41 42 42 42 41
73 75 76 77 78 80 81 81 80 79 77 74 70 67 64 62 60 58 56 53 51 50 48 46 44 42 42 42 42 41 41 41 40 40 39 38 38 38 38 39 39 39 39
74 76 78 79 79 79 79 79 78 77 74 71 67 64 61 58 56 54 52 51 49 48 46 44 43 41 41 40 40 39 39 38 38 38 37 36 36 36 35 35 35 36 36
76 77 79 80 79 79 78 76 75 74 71 67 64 61 59 56 53 50 49 48 46 46 45 44 43 41 39 39 38 37 36 36 36 35 34 34 34 34 33 33 33 33 34
77 78 79 79 78 77 75 74 73 71 69 65 62 59 56 53 51 48 45 45 45 44 43 43 43 41 40 38 37 36 35 34 34 33 33 32 32 32 32 32 33 33 34

GEFSMW_500_meanwind_108.txt.gz
Wind_Speed
19 20 20 21 21 21 21 22 23 24 24 25 26 27 28 29 30 32 33 35 36 38 39 40 42 43 44 46 48 49 50 52 53 55 55 56 57 57 58 59 60 61 61
20 21 22 22 22 22 23 23 24 24 25 26 27 28 29 30 32 33 35 37 38 40 41 43 44 46 47 48 50 52 53 54 56 58 59 59 59 60 60 61 62 63 64
22 22 23 23 24 24 24 24 25 25 26 27 28 30 31 33 35 37 38 40 41 43 44 46 47 49 50 52 54 56 57 58 60 61 63 64 64 64 64 64 65 67 68
22 23 24 24 25 25 26 26 27 28 29 30 31 32 34 35 37 38 40 42 44 45 47 49 51 53 54 56 58 60 61 63 64 66 68 70 71 72 71 70 70 70 72
23 24 25 26 26 27 28 28 29 30 31 32 33 35 36 38 39 41 43 45 47 49 51 53 55 57 59 60 62 64 67 68 70 72 74 75 76 78 79 78 77 77 76
25 26 27 27 28 29 30 31 31 32 33 34 36 37 39 41 43 45 46 49 51 53 56 58 60 62 64 66 68 70 72 74 76 78 79 81 81 82 84 84 84 84 83
27 28 28 29 30 31 32 33 33 34 35 37 39 41 43 44 47 49 51 53 55 58 60 62 64 67 69 71 73 75 77 79 81 82 83 85 85 86 87 88 88 88 87
29 29 30 31 33 34 34 35 36 37 39 41 43 45 47 49 51 54 56 58 60 62 64 67 69 71 74 76 78 80 82 83 84 85 86 87 87 88 89 89 90 90 90
31 31 33 34 36 36 37 38 39 41 43 45 47 49 51 54 56 59 61 63 65 67 69 71 74 76 79 81 82 82 82 83 83 84 85 87 87 88 88 89 90 91 92
32 34 36 37 38 39 40 42 44 45 47 49 51 54 56 59 61 63 66 68 70 72 74 76 78 80 81 82 82 82 82 83 83 84 84 84 84 85 85 86 87 88 90
34 36 38 39 40 42 43 45 47 49 51 53 56 58 61 63 66 68 70 72 73 75 77 79 80 81 81 81 81 81 81 81 81 80 80 80 80 80 80 80 81 82 83
37 39 40 42 43 44 46 48 50 53 55 57 60 62 65 67 69 71 73 75 77 78 80 81 81 80 79 79 79 79 79 79 79 78 77 76 75 75 75 74 74 74 75
40 41 42 44 45 47 49 52 54 56 59 61 64 66 69 71 72 74 75 77 78 80 80 80 79 78 78 78 78 78 78 77 76 74 73 71 70 69 68 67 67 67 67
41 42 44 46 48 50 53 55 57 60 62 65 67 69 71 72 74 75 77 78 79 80 79 78 77 77 77 77 77 76 75 73 71 68 66 65 63 62 61 61 61 61 60
43 44 46 48 51 53 56 58 60 63 65 67 69 71 72 74 75 77 78 79 80 79 78 77 77 77 77 75 74 72 70 67 64 62 60 58 57 56 56 56 55 54 55
45 47 49 51 54 56 58 60 63 65 67 69 71 72 74 75 77 78 79 79 79 78 77 77 76 75 73 71 69 67 64 61 58 56 55 54 53 52 51 51 51 50 50
47 49 51 54 56 58 61 63 65 67 69 70 72 74 76 77 78 79 79 79 78 77 76 75 73 71 69 67 64 61 59 56 54 53 51 50 49 48 48 47 47 47 48
49 52 54 56 59 61 63 65 67 68 70 72 74 76 77 79 79 79 79 78 77 75 74 72 70 67 64 62 59 57 54 52 50 49 48 47 46 46 46 45 44 43 43
52 54 56 59 61 63 65 66 68 70 72 74 75 77 79 79 79 78 77 76 75 73 71 69 66 63 60 57 55 53 50 48 47 46 46 46 45 44 44 44 42 41 41
54 57 59 61 63 65 67 68 70 72 73 75 77 78 79 79 78 77 76 74 73 70 68 65 62 59 55 52 50 49 47 46 45 44 44 43 42 41 41 41 40 40 39
57 59 61 63 65 67 69 70 72 74 75 77 78 79 78 78 77 76 74 73 71 67 64 61 57 54 51 48 47 46 45 44 42 41 40 40 39 39 38 38 38 38 38
59 61 63 65 67 69 71 72 73 75 77 78 78 78 77 76 76 74 72 70 67 63 60 56 52 50 47 45 44 43 43 42 41 39 38 38 37 36 36 36 37 37 37
61 63 65 67 68 70 72 74 75 77 78 78 78 77 76 75 75 73 70 67 63 60 56 52 48 45 43 42 41 40 40 39 38 38 37 36 35 35 35 35 36 36 36
64 66 67 69 70 72 73 76 77 78 79 78 77 76 75 74 72 69 66 62 59 55 51 48 45 42 40 39 38 38 37 36 36 36 35 35 34 34 33 33 33 33 33
66 67 69 70 72 73 75 77 78 79 79 78 76 75 74 72 68 64 61 57 53 51 47 44 42 40 38 37 36 36 35 35 34 34 34 34 33 32 31 31 31 31 31
68 69 70 72 73 75 76 78 79 79 78 76 75 73 71 68 64 59 54 51 49 46 44 42 41 39 37 36 35 35 34 34 34 34 34 33 32 31 30 30 30 30 30

GEFSMW_500_meanwind_114.txt.gz
Wind_Speed
19 19 20 21 22 22 23 23 23 24 24 25 25 26 26 27 28 29 30 31 33 34 35 36 37 39 40 41 43 44 45 46 48 49 49 50 51 52 53 54 55 56 57
20 21 22 22 23 23 24 24 25 25 26 27 27 28 28 29 31 32 33 34 35 36 38 39 40 41 43 44 45 47 48 49 51 53 54 53 53 54 56 57 58 59 60
21 22 23 23 24 25 25 26 27 28 28 29 29 30 31 32 33 34 35 37 38 39 41 42 43 45 46 47 49 51 52 53 55 57 59 59 59 59 59 61 62 64 65
22 23 24 25 26 26 27 28 29 29 30 31 32 33 34 35 36 37 38 39 41 42 44 45 47 48 50 52 53 55 57 58 59 60 63 64 66 67 66 65 66 68 70
24 25 26 26 28 29 29 30 31 31 32 33 34 35 36 37 38 39 41 42 44 45 47 49 51 52 54 56 57 59 60 62 64 65 67 69 70 72 74 73 72 73 74
26 26 27 28 29 30 31 32 33 33 34 36 37 38 38 40 41 42 44 45 47 49 51 53 54 56 58 60 62 63 65 67 68 70 72 73 75 76 79 80 80 80 80
27 28 29 30 31 32 34 34 35 36 37 38 39 40 41 42 44 45 47 49 51 53 54 56 58 60 62 64 66 67 69 70 72 73 75 77 78 80 81 83 83 83 82
29 30 31 32 34 34 36 36 38 39 39 40 41 42 44 45 47 49 51 53 54 56 58 60 62 64 66 68 69 71 72 73 75 76 77 77 78 79 79 80 81 81 80
31 32 33 35 36 37 38 39 40 41 42 43 44 45 47 49 50 52 54 56 57 59 61 63 65 67 68 70 71 72 74 75 76 76 77 77 77 76 77 77 79 81 81
33 34 35 37 38 39 40 41 42 43 44 46 47 48 50 52 54 55 57 59 61 63 65 66 67 68 70 71 73 74 75 75 75 76 76 76 75 76 76 77 78 80 81
35 36 38 39 40 40 41 43 44 45 46 48 50 51 53 55 57 58 60 62 64 65 67 68 69 70 72 74 75 76 76 76 76 76 76 76 75 75 76 76 77 77 77
37 38 39 40 41 42 44 45 47 48 49 51 52 54 56 58 60 61 63 64 66 67 68 70 71 73 74 76 76 76 76 76 76 76 75 74 74 75 75 75 74 73 72
38 39 40 41 43 44 46 47 49 50 51 53 55 57 59 61 62 64 65 66 67 69 70 72 73 75 76 76 76 76 76 76 75 74 73 73 73 73 72 72 71 69 67
39 41 42 43 45 46 48 49 51 52 54 55 58 60 62 63 65 66 67 68 69 71 72 74 75 76 76 76 76 76 76 75 74 73 72 72 72 71 69 67 65 63 62
41 42 44 45 46 48 50 51 53 54 56 58 60 62 64 65 66 67 69 70 71 73 74 76 76 76 75 75 75 76 75 74 73 72 71 70 68 66 64 61 59 57 56
43 44 45 47 48 50 51 53 55 57 59 61 63 64 66 67 68 69 70 72 73 75 76 76 76 75 75 76 76 76 75 74 72 70 68 65 62 59 56 55 53 52 52
45 46 47 49 50 52 54 56 57 59 61 63 65 66 67 69 70 71 72 74 75 76 77 76 76 75 76 76 76 75 74 72 69 66 63 59 56 53 52 50 49 48 47
46 48 49 51 52 54 56 58 59 61 63 65 66 68 69 70 71 73 74 76 77 77 77 76 76 76 76 76 74 72 70 67 63 60 57 54 50 49 48 46 44 43 43
48 50 51 52 54 56 58 59 61 63 65 67 68 69 71 72 73 75 76 77 78 78 77 77 76 76 74 73 71 68 64 60 56 53 51 49 46 45 44 43 41 40 40
50 51 52 54 56 58 59 61 63 65 67 68 69 70 72 74 75 76 77 78 78 78 77 76 75 75 72 69 65 62 58 54 51 48 46 44 43 41 40 40 39 39 38
51 53 54 55 57 59 61 63 65 66 68 69 71 72 74 75 77 78 78 78 79 78 77 76 74 71 68 63 59 55 53 50 47 44 42 40 39 38 37 37 38 37 37
53 54 55 57 59 61 63 65 66 68 69 71 72 73 75 77 78 78 78 79 79 78 76 74 70 66 61 56 53 50 49 47 45 42 39 37 37 36 36 36 36 36 35
54 56 57 59 60 62 65 66 68 69 71 72 74 75 76 77 78 78 79 78 78 76 74 70 65 60 54 51 49 47 46 44 43 40 38 37 37 36 36 35 35 34 34
56 58 59 60 62 64 66 68 70 71 73 74 75 76 77 78 78 78 78 77 75 73 69 65 59 54 49 47 45 44 43 42 40 39 37 36 35 35 35 34 34 34 33
58 59 61 63 64 66 68 70 72 73 74 75 77 77 78 78 78 77 76 74 71 68 65 60 55 50 46 44 44 42 40 39 38 36 35 34 34 33 33 33 32 32 32
60 61 63 64 66 68 69 71 73 75 76 77 78 78 78 78 77 76 73 69 65 62 58 55 52 49 46 44 42 41 39 38 37 36 34 33 33 33 33 32 32 32 32

GEFSMW_500_meanwind_120.txt.gz
Wind_Speed
19 19 19 19 20 20 21 22 22 23 24 24 25 26 27 28 29 30 30 31 32 34 35 36 37 38 39 40 42 43 44 45 47 47 47 47 48 49 51 52 53 54 56
19 19 19 20 21 21 22 22 23 24 25 26 27 28 29 30 31 32 33 34 35 36 38 39 40 41 42 43 45 46 47 48 49 51 51 50 50 51 53 54 56 57 59
19 19 20 21 21 22 23 24 24 25 26 28 29 30 31 32 33 34 35 37 38 39 40 41 42 44 45 46 47 49 50 51 52 55 56 57 56 55 54 56 58 60 61
20 20 21 22 22 23 24 25 26 27 28 30 31 32 33 34 35 36 38 39 40 42 43 44 45 46 48 49 51 52 53 55 55 57 59 61 62 63 61 59 60 62 63
20 21 22 23 24 25 26 27 28 29 30 32 33 34 35 36 37 39 40 41 43 44 45 46 48 50 51 53 54 55 57 58 59 60 62 63 65 67 68 67 65 65 66
21 22 23 24 25 26 27 28 30 31 32 34 35 36 37 38 39 41 42 44 45 46 48 49 51 52 54 55 56 58 60 61 62 64 66 67 68 69 71 72 71 71 70
22 23 24 25 27 28 29 31 32 33 34 35 36 38 39 40 42 43 44 46 47 48 50 52 53 55 56 57 59 60 62 64 65 66 68 69 70 72 73 74 74 75 74
24 24 26 27 28 30 31 33 34 35 36 37 38 40 41 43 44 46 47 48 49 50 52 54 55 57 58 60 61 63 64 66 67 68 69 70 71 73 74 76 77 77 76
25 26 28 29 30 31 33 34 36 37 38 39 40 42 44 45 46 47 49 50 52 53 55 56 58 59 61 62 64 65 66 68 68 69 71 72 73 75 76 77 79 80 80
27 28 30 31 32 33 35 36 37 38 40 41 43 45 46 47 48 50 51 52 54 56 57 59 60 62 64 65 66 67 69 69 70 72 73 74 75 76 77 78 79 80 81
29 30 32 33 34 35 36 38 39 40 42 43 45 47 48 49 51 52 54 55 57 59 60 61 63 65 66 67 68 69 70 71 72 74 75 76 77 77 77 78 78 78 79
31 32 33 34 36 37 38 39 41 42 44 46 47 49 50 52 53 55 56 58 60 61 63 64 66 67 68 69 70 71 72 74 75 76 76 77 77 77 77 77 78 78 78
33 34 35 36 37 39 40 41 43 44 46 48 49 51 53 54 56 57 59 61 62 63 65 67 68 69 69 70 72 73 74 75 76 76 77 77 77 77 78 78 78 78 77
34 36 37 38 39 41 42 43 45 47 48 50 51 53 55 57 58 60 61 63 64 66 67 68 69 70 71 73 74 75 76 76 76 77 77 78 79 79 79 78 77 76 74
36 37 38 40 41 42 44 45 47 48 50 52 54 55 57 59 60 62 63 65 66 67 68 69 71 72 73 75 76 76 76 76 76 77 78 78 79 78 77 75 73 71 69
37 38 40 41 43 44 45 47 48 50 52 54 56 57 59 60 62 63 65 66 67 68 70 71 72 74 75 76 77 77 77 78 78 78 78 77 75 73 71 69 67 65 63
38 40 41 43 44 46 47 48 50 52 54 56 57 59 60 62 63 65 66 67 68 70 72 73 74 75 76 77 77 78 79 78 78 77 76 73 69 67 64 62 60 58 56
40 41 43 44 46 47 49 50 52 54 56 57 59 60 62 63 65 66 68 69 70 72 73 74 76 77 77 78 78 79 79 78 76 74 71 67 63 61 59 56 53 51 50
42 43 44 46 47 49 50 52 54 55 57 59 60 62 64 65 67 68 69 71 72 73 75 76 77 77 77 78 79 79 78 76 72 68 65 61 58 55 53 52 49 47 45
43 44 46 47 49 50 52 53 55 56 58 60 62 64 65 67 68 69 71 73 74 76 77 77 78 78 78 78 78 77 76 72 67 62 59 56 53 50 49 48 46 44 42
45 46 48 49 50 52 53 54 56 58 60 61 63 65 66 68 70 71 73 75 76 77 78 78 78 78 78 77 76 74 71 67 62 57 53 50 49 47 46 45 44 42 40
46 48 49 50 52 53 54 56 58 60 61 63 65 66 68 70 72 74 75 77 78 79 79 78 77 76 76 74 72 69 66 62 58 54 50 48 46 45 43 42 41 40 38
48 49 50 51 52 54 56 58 60 61 63 64 66 68 69 71 74 76 77 78 80 80 79 78 77 75 73 70 67 64 60 57 54 51 48 46 44 42 41 40 39 37 36
49 50 51 52 54 56 58 60 61 63 65 66 68 69 71 74 76 78 79 80 80 80 79 77 76 73 69 65 62 59 56 53 51 49 46 43 42 41 39 37 36 35 35
50 51 52 54 56 58 60 61 63 65 67 68 70 72 74 77 78 79 80 80 79 79 78 76 73 70 65 61 59 56 53 50 48 45 42 40 39 37 35 34 34 34 33
51 53 54 56 58 59 61 63 66 68 69 71 73 75 77 78 79 80 79 78 78 77 74 72 69 66 63 60 56 53 50 48 46 43 40 37 36 34 33 32 32 32 31

GEFSMW_500_meanwind_126.txt.gz
Wind_Speed
24 24 24 24 24 24 24 24 24 25 25 26 26 27 27 28 29 30 31 32 33 33 34 35 37 38 39 40 42 42 43 44 45 45 45 46 47 48 50 51 52 53 54
24 24 25 25 25 26 26 26 26 26 27 27 27 28 29 30 31 32 33 34 34 35 36 38 39 40 42 43 44 45 46 47 48 49 49 48 48 49 51 52 54 55 56
25 25 26 26 27 27 27 27 27 28 28 29 29 30 30 32 33 34 35 36 37 38 39 40 42 43 44 45 46 47 48 49 50 52 53 53 53 52 51 52 54 56 57
26 26 27 27 28 28 28 28 29 29 29 30 31 32 32 33 34 36 36 37 38 40 41 42 44 45 46 47 48 50 51 51 52 54 55 57 58 59 57 55 56 57 58
26 27 28 28 28 29 29 29 30 30 31 32 33 34 35 35 36 37 38 39 40 42 43 44 46 47 48 49 50 51 52 54 55 56 57 58 60 62 63 61 60 60 60
27 28 28 29 29 30 30 31 31 32 33 34 35 36 37 37 38 39 40 41 42 44 45 46 48 49 50 51 52 53 55 56 57 59 60 61 62 63 65 65 65 65 64
28 28 29 30 30 31 31 32 33 34 35 36 37 38 39 40 40 41 42 43 45 46 47 48 49 50 52 53 54 55 57 58 59 61 62 64 65 66 68 69 69 69 68
29 29 30 31 32 32 33 34 35 36 37 38 39 40 41 42 42 43 45 46 47 48 49 50 51 52 54 55 56 57 59 60 61 63 64 66 67 68 70 71 72 72 71
30 30 31 32 33 34 35 36 37 38 39 40 41 42 43 44 45 46 47 48 49 50 51 52 53 55 56 57 58 59 61 62 64 65 67 68 69 70 71 73 74 75 74
31 31 32 33 34 35 37 38 39 39 40 41 42 43 44 45 46 47 48 50 51 52 53 54 55 56 58 59 61 62 64 65 66 68 69 70 71 72 73 75 76 78 79
31 32 33 35 36 37 38 39 40 41 42 43 44 45 46 47 48 49 50 52 53 54 55 56 58 59 61 62 63 65 66 67 68 70 71 72 73 74 75 77 78 79 80
32 33 35 36 37 38 39 40 41 42 43 44 45 46 48 49 50 51 52 54 55 56 57 59 60 62 63 65 66 67 68 69 70 72 73 74 76 77 78 79 80 81 82
34 35 36 37 38 39 40 41 42 44 45 46 47 48 49 51 52 53 54 56 57 58 60 61 63 65 66 67 68 69 70 71 72 74 75 76 78 78 79 80 81 82 83
35 36 37 38 39 40 41 42 44 45 46 47 49 50 51 52 53 55 56 58 59 61 62 64 66 67 68 69 70 71 72 73 74 76 77 79 80 80 81 82 82 83 83
37 37 38 39 41 41 42 44 45 46 47 48 50 51 52 54 55 56 58 60 61 63 64 66 68 69 70 71 72 73 74 75 76 78 79 80 80 81 82 82 82 81 80
38 39 40 41 41 42 44 45 46 47 49 50 51 53 54 55 57 58 60 62 63 65 67 68 69 70 72 73 74 75 77 78 79 79 80 80 81 81 81 80 79 78 76
40 40 41 42 42 43 44 46 47 49 50 52 53 55 56 57 59 60 62 64 65 67 68 69 70 72 73 75 76 78 79 79 80 80 80 80 80 80 79 76 74 72 69
41 41 42 42 43 44 46 47 49 50 52 53 55 56 58 59 61 62 64 66 67 68 69 70 72 74 75 77 79 80 80 80 80 80 80 79 78 76 74 72 69 66 62
41 42 42 43 44 46 47 49 50 52 53 55 57 58 59 61 63 64 66 67 68 69 71 73 74 76 77 79 80 81 80 80 79 78 78 77 74 71 69 67 64 60 57
42 42 43 45 46 48 49 51 52 53 55 57 58 59 61 63 64 65 67 68 70 71 73 75 77 78 80 80 81 81 81 80 78 76 74 71 69 66 64 63 60 56 53
43 44 45 47 48 49 51 52 54 55 57 58 59 61 62 64 65 67 69 70 72 74 76 77 78 80 81 81 81 81 81 80 76 73 68 65 64 62 61 59 56 53 50
45 46 47 48 49 50 52 53 55 57 58 59 60 61 63 65 67 69 71 73 75 77 78 79 79 80 80 80 80 80 79 76 73 68 65 62 61 60 57 54 51 49 47
46 47 48 50 51 52 54 55 57 58 59 60 61 63 65 67 69 71 73 75 78 79 80 81 81 79 78 78 78 77 74 71 68 65 62 61 59 56 52 49 47 45 42
47 48 49 50 52 53 55 57 58 59 59 61 63 65 67 69 71 73 75 78 79 80 81 81 80 79 78 76 75 72 69 66 63 61 59 57 54 51 48 45 43 40 37
48 49 50 52 53 55 56 57 58 59 61 63 65 67 69 71 73 75 78 79 80 81 82 81 80 80 77 74 71 69 65 61 59 58 55 53 49 46 44 41 39 36 34
49 50 51 53 54 55 56 58 59 61 63 65 67 70 72 74 76 78 79 80 80 80 80 80 80 78 75 71 67 64 61 58 57 56 53 49 46 43 40 37 34 33 31

GEFSMW_500_meanwind_132.txt.gz
Wind_Speed
25 24 25 24 24 24 24 24 25 25 25 26 27 27 27 28 29 29 30 31 31 32 33 34 34 35 36 37 38 39 40 41 42 43 43 44 45 46 47 48 49 50 51
26 25 25 25 25 25 25 25 25 26 27 27 28 28 28 29 29 30 31 32 33 34 34 35 36 37 38 39 40 41 42 43 44 45 46 46 46 46 47 49 50 52 53
26 26 26 26 26 26 26 26 26 27 28 28 29 29 30 30 31 32 33 34 35 35 36 37 38 39 40 41 42 43 44 45 46 47 48 48 48 47 47 48 50 52 54
27 26 26 27 27 27 27 27 28 28 29 29 30 31 31 32 33 34 35 35 36 37 38 39 40 41 42 43 44 45 46 47 48 49 50 51 51 52 50 50 51 52 54
27 27 27 28 28 28 28 28 29 29 30 30 31 32 33 33 34 35 36 37 38 39 40 41 42 43 44 44 45 47 48 49 50 51 51 52 53 54 55 54 54 55 56
28 28 28 28 28 29 29 29 30 30 31 31 32 33 34 35 36 37 38 38 39 40 41 43 43 44 45 46 47 49 50 51 52 53 54 55 56 57 58 58 58 59 59
28 28 28 29 30 30 30 30 31 32 32 33 34 35 36 36 37 38 39 40 41 42 43 44 45 45 47 48 49 50 51 53 54 55 56 57 58 60 61 62 62 63 63
28 28 29 29 30 30 31 32 32 33 33 34 35 36 37 38 39 40 41 42 43 44 44 45 46 47 49 50 51 52 53 54 56 57 58 60 61 62 64 65 66 66 65
29 29 29 30 31 31 32 33 33 34 34 35 36 37 38 39 40 41 42 43 44 45 46 47 48 50 51 52 53 54 55 56 58 59 61 62 63 64 66 67 68 69 68
29 30 30 31 32 32 33 33 34 35 36 37 37 38 39 40 41 43 44 44 45 46 48 49 50 52 53 54 55 56 57 59 60 62 63 64 65 67 67 68 69 71 72
30 31 32 32 33 33 34 34 35 35 36 37 38 39 41 42 43 44 45 46 47 48 50 51 52 54 55 56 57 59 60 62 63 65 65 66 67 68 69 70 72 73 75
32 33 33 33 33 34 34 35 36 37 38 39 40 41 43 44 44 45 46 48 49 50 52 53 54 56 57 58 60 61 63 64 65 66 66 67 69 70 72 73 75 77 78
33 34 34 33 34 35 35 36 37 38 39 40 42 43 44 44 46 47 48 49 50 52 53 55 56 58 59 61 62 64 65 66 66 67 68 70 71 73 75 76 78 79 80
34 34 34 34 35 36 36 37 38 39 40 41 42 43 44 45 46 47 49 50 52 54 55 57 58 60 62 63 65 66 66 67 68 69 70 72 74 76 78 79 79 80 79
34 35 35 35 36 36 37 38 39 40 41 42 43 44 45 46 47 49 50 52 54 55 57 59 61 62 64 65 66 67 68 68 69 71 73 75 76 78 79 79 79 79 79
36 36 36 37 37 37 38 39 40 41 42 43 44 44 46 47 49 51 52 54 56 58 60 61 63 64 65 67 68 68 69 70 71 73 75 77 78 78 78 78 77 77 77
36 36 36 37 37 38 39 40 40 41 42 43 44 46 47 49 51 52 54 56 58 60 62 63 65 66 67 68 69 70 72 73 74 76 77 77 77 77 77 75 74 74 74
36 36 36 37 38 38 39 40 40 42 43 44 45 47 49 50 52 54 56 58 60 62 63 65 66 66 67 69 71 72 74 75 76 77 77 76 76 75 74 73 73 72 71
36 37 37 37 38 39 40 40 41 42 44 45 47 48 50 52 54 56 58 60 62 63 64 65 66 67 69 71 73 74 75 76 76 76 76 75 74 73 73 73 71 69 66
37 37 38 39 39 40 41 42 43 44 45 47 48 50 52 54 56 58 60 61 63 64 65 66 67 69 70 72 74 76 77 77 76 75 74 73 72 71 71 71 69 66 62
37 37 38 39 40 41 42 43 44 45 47 48 49 51 53 55 57 59 61 63 64 65 66 67 69 71 72 74 76 77 78 77 76 74 72 71 70 69 69 68 65 62 59
37 38 39 40 41 42 43 44 45 46 48 49 51 53 55 57 58 60 62 63 65 66 68 70 71 72 74 75 76 76 77 77 75 72 71 69 68 67 65 62 60 57 56
38 39 40 41 42 43 44 45 46 48 49 51 53 54 56 57 59 61 63 65 67 68 70 72 73 74 75 76 76 76 76 74 73 70 69 68 66 63 60 57 55 54 52
39 41 42 43 44 44 45 47 48 49 51 52 54 55 57 59 61 63 64 66 69 71 73 74 75 76 76 77 77 76 73 71 69 68 67 65 61 58 55 53 52 50 47
41 42 43 44 45 46 47 48 49 51 52 54 56 57 59 61 63 65 67 69 71 73 75 76 77 78 78 77 76 74 71 69 67 66 63 59 55 53 51 50 49 46 43
43 44 45 45 46 47 48 50 51 53 54 56 57 59 61 63 65 67 69 70 73 74 76 78 79 79 78 76 73 71 68 66 64 62 58 55 53 51 49 47 45 42 40

GEFSMW_500_meanwind_138.txt.gz
Wind_Speed
27 27 27 27 28 28 28 28 28 28 28 28 28 29 29 29 30 30 30 30 31 31 32 33 33 34 34 35 36 36 37 38 38 38 39 40 41 41 42 43 44 44 45
29 28 29 29 29 29 29 29 29 29 29 29 30 30 30 30 31 31 32 32 32 33 33 34 35 35 36 37 37 38 39 40 41 41 41 41 41 42 43 44 45 46 46
30 30 30 30 30 30 30 30 30 30 30 31 31 31 32 32 32 32 33 33 34 34 35 35 36 37 38 39 39 40 41 42 42 43 43 43 43 42 42 44 45 46 47
31 31 30 31 30 30 31 31 31 31 31 32 32 33 33 33 33 34 34 35 35 35 36 36 37 39 40 40 41 42 43 43 44 44 45 46 47 47 45 45 46 47 48
31 31 31 31 31 31 31 31 32 32 32 33 33 33 34 34 35 35 36 36 36 37 37 38 39 40 41 42 43 44 45 45 46 46 47 48 49 50 50 49 48 49 50
31 31 31 31 31 31 31 32 32 32 33 33 34 34 35 35 36 36 37 37 37 38 39 39 40 41 43 44 45 46 46 47 48 49 50 50 51 52 53 53 53 53 53
31 31 31 31 31 31 32 32 33 33 34 34 34 35 36 36 37 37 38 38 39 39 40 41 42 44 45 46 47 47 48 49 50 50 51 53 54 55 56 57 58 58 57
31 31 32 32 32 32 33 33 34 34 35 35 36 36 37 37 38 38 39 40 40 41 42 43 44 46 47 48 49 49 49 50 51 53 54 55 56 57 59 61 62 61 60
31 32 32 32 32 33 33 34 35 35 36 36 37 37 38 39 39 40 40 41 41 43 44 45 46 47 49 50 50 51 51 52 54 55 55 57 58 60 62 63 63 64 63
32 32 33 33 33 34 35 35 36 36 37 37 38 38 39 39 40 41 41 42 43 44 46 47 48 49 50 51 51 52 53 55 56 57 58 60 61 62 63 63 64 65 65
33 33 34 34 34 35 36 36 37 37 37 38 38 39 39 40 40 41 42 44 45 46 47 48 49 50 51 52 53 54 56 57 58 60 61 62 63 63 64 64 65 66 68
35 35 35 35 35 36 37 37 37 37 38 39 39 39 40 40 41 42 43 44 46 47 48 49 50 52 53 54 55 57 58 59 60 61 62 63 64 64 65 66 67 68 70
35 35 36 36 36 36 37 37 37 38 39 39 39 40 40 41 42 43 44 45 47 48 49 50 52 53 54 56 57 59 60 61 62 63 64 65 66 66 67 68 69 70 71
37 36 37 37 37 37 37 37 38 39 39 39 40 40 41 42 43 44 45 46 47 49 50 52 53 55 56 58 59 60 61 62 63 64 66 67 67 68 69 70 71 72 72
37 37 37 37 38 37 38 38 39 39 39 40 41 41 42 43 44 45 46 47 48 50 51 53 54 56 58 60 61 62 63 64 65 66 67 68 69 70 71 72 72 73 73
38 38 38 38 38 38 39 39 40 40 41 41 42 43 43 44 45 46 47 48 50 51 52 54 55 57 59 61 62 64 65 66 66 67 68 69 70 71 72 73 74 74 74
39 38 38 38 39 39 39 40 41 42 42 43 43 43 44 45 46 47 48 50 51 52 53 55 57 59 61 62 64 65 66 66 67 69 70 71 72 73 74 75 74 73 73
39 39 39 39 40 40 41 41 41 42 43 43 44 45 45 46 47 48 49 51 52 53 55 57 59 61 62 63 65 66 67 68 69 71 73 74 74 75 76 76 74 72 71
39 40 40 40 41 41 41 41 42 43 44 44 45 45 46 47 48 49 51 52 54 55 57 59 61 62 63 64 66 67 68 69 71 73 74 75 76 76 77 76 73 70 68
39 40 41 41 41 41 41 42 43 44 44 45 46 46 48 49 49 50 52 53 55 56 58 60 61 62 63 65 67 68 70 72 73 73 74 75 76 75 74 72 70 68 67
40 40 41 41 41 41 42 43 43 44 45 46 47 48 49 49 50 52 53 55 56 58 60 61 61 63 64 66 68 70 72 73 73 74 74 74 74 73 71 69 68 67 66
40 41 41 42 42 43 43 44 44 45 46 46 47 48 49 50 52 53 55 56 58 60 61 62 62 63 65 67 69 71 72 73 74 74 74 73 71 69 67 66 65 64 63
41 41 42 43 43 44 45 45 46 46 47 48 48 49 50 51 53 55 56 58 60 61 62 63 63 64 65 67 69 71 72 73 74 74 72 70 68 66 64 63 62 61 58
42 43 43 43 44 45 45 46 47 48 48 49 49 50 51 53 55 56 58 59 60 62 63 64 64 65 66 68 70 71 72 72 73 72 69 66 64 62 61 59 57 55 51
43 44 44 45 45 45 46 47 47 48 49 49 50 51 53 55 56 57 59 60 61 63 64 65 66 67 68 69 70 71 71 71 71 69 65 62 60 58 57 54 52 49 47
43 44 45 45 46 46 47 47 48 49 49 50 52 53 55 56 57 59 60 61 63 64 65 67 68 69 69 69 69 70 70 70 68 65 61 59 57 55 53 50 48 46 44

GEFSMW_500_meanwind_144.txt.gz
Wind_Speed
24 24 25 25 25 26 26 27 27 27 28 28 28 29 29 29 30 30 31 31 31 32 32 32 32 33 33 34 34 34 34 35 35 36 36 37 38 39 40 41 42 42 43
25 25 25 26 26 27 27 27 27 28 29 29 29 30 30 30 31 31 32 32 32 33 33 33 34 34 35 35 36 36 36 36 37 37 37 38 39 40 41 42 43 44 44
25 25 26 26 27 27 27 27 27 28 29 29 30 30 30 31 32 32 33 33 33 34 34 35 35 36 37 37 37 37 38 39 39 40 40 40 40 40 41 42 44 45 46
25 25 25 26 26 27 27 27 27 28 29 30 30 30 31 31 32 33 34 34 34 35 36 37 37 38 38 38 39 39 40 41 41 42 42 43 44 43 42 43 45 46 48
25 25 25 25 26 27 27 27 28 28 29 30 30 31 32 32 33 34 34 35 36 36 37 38 39 39 39 40 40 41 42 42 43 44 44 45 46 46 46 46 46 47 49
25 25 25 25 26 27 27 28 28 29 30 31 31 32 33 33 34 34 35 36 37 38 39 39 40 40 41 41 42 42 43 44 45 46 46 47 47 48 49 49 49 49 50
25 25 26 26 27 28 28 29 29 30 31 31 32 33 34 34 35 36 36 37 38 39 40 40 41 41 42 42 43 44 45 46 46 47 48 48 49 50 51 52 52 53 53
26 26 26 27 28 28 29 30 30 31 32 32 33 34 34 35 36 37 37 38 39 39 40 41 41 42 42 43 44 45 46 47 48 48 49 50 51 53 54 55 57 57 55
26 26 27 27 28 29 30 31 31 32 33 34 34 35 36 36 37 38 38 39 39 40 41 42 42 43 44 45 46 47 48 48 49 50 52 53 54 55 57 58 59 59 58
26 27 28 28 29 30 31 31 32 33 34 34 35 36 36 37 38 38 38 39 40 41 42 42 44 45 46 46 47 48 49 50 51 52 54 55 57 57 58 59 59 61 61
26 27 28 29 30 30 31 32 33 33 34 35 35 36 37 37 38 38 39 40 41 42 43 44 45 45 46 47 48 50 51 52 53 54 56 57 58 58 59 60 61 62 64
27 28 29 30 30 31 32 32 33 34 34 35 36 36 37 38 38 39 40 41 42 43 44 45 46 46 47 49 50 51 52 54 55 56 57 58 58 59 60 61 62 64 66
28 29 30 31 31 32 32 33 34 34 35 35 35 36 37 38 39 40 41 42 43 44 45 46 46 47 49 50 52 53 54 55 56 57 58 58 59 60 62 63 65 66 68
29 30 31 31 32 32 33 34 34 34 35 36 36 37 38 39 40 41 41 42 43 44 45 46 47 49 50 52 53 54 55 55 56 57 58 60 61 62 63 65 66 68 70
30 31 32 32 33 33 34 34 35 35 36 37 37 37 38 39 40 41 42 42 44 45 46 47 49 50 51 53 54 55 55 56 57 59 60 61 62 64 65 67 68 70 71
32 32 32 33 34 34 35 35 36 37 37 37 37 38 39 39 40 41 43 44 45 46 47 48 49 50 52 54 55 55 56 57 59 60 61 62 63 65 66 68 69 71 72
32 32 33 34 35 35 36 36 37 37 37 37 38 39 40 40 41 42 43 45 46 47 48 49 50 52 53 55 55 56 57 59 60 61 62 63 64 66 67 68 69 71 72
32 33 33 34 35 35 36 36 37 37 38 38 39 40 41 42 42 43 44 46 47 49 50 51 52 53 54 55 56 57 58 60 61 62 63 63 65 66 68 69 69 70 71
33 33 34 34 35 35 36 37 37 38 39 40 40 41 42 43 44 45 46 47 48 50 51 53 54 54 55 56 57 58 60 61 62 62 63 64 65 67 68 69 70 70 70
34 34 35 35 35 36 36 37 38 38 39 40 41 42 43 44 45 46 47 49 50 51 52 54 54 55 56 57 58 59 61 61 61 62 63 65 66 67 68 68 69 69 70
34 35 36 36 36 37 37 38 38 39 40 41 42 43 44 45 46 47 48 49 51 52 53 54 55 56 57 58 59 60 62 62 62 63 64 65 66 66 67 68 69 70 69
36 36 36 37 37 38 38 39 40 41 42 42 43 44 45 46 47 48 49 51 52 54 54 55 55 56 57 58 59 61 63 63 63 64 64 64 65 66 67 69 69 68 66
36 36 37 37 38 39 40 41 42 42 43 44 45 45 46 47 48 50 51 52 54 55 55 55 55 56 57 59 61 62 63 63 64 64 64 64 65 66 67 67 66 64 62
36 37 37 38 40 41 41 42 43 44 44 45 46 46 47 49 50 52 53 54 56 56 56 56 56 57 59 61 62 63 63 64 64 64 64 65 65 67 66 65 63 61 59
37 38 39 40 41 42 43 44 44 45 46 47 48 48 49 50 52 53 54 56 57 57 57 57 58 59 61 62 64 64 64 64 64 64 64 65 65 65 63 61 60 58 57
39 40 40 41 42 43 44 45 46 47 47 48 49 50 51 52 53 54 55 57 58 58 59 60 61 62 63 64 64 65 65 65 65 65 65 65 64 63 61 59 58 56 55

GEFSMW_500_meanwind_150.txt.gz
Wind_Speed
26 26 26 26 27 27 27 27 27 27 28 29 30 30 30 31 31 32 32 33 33 34 34 34 35 35 35 36 36 36 37 37 38 38 39 39 40 40 41 42 42 43 43
27 27 27 27 28 28 28 28 28 29 29 30 30 30 31 31 32 32 32 33 34 34 35 35 35 36 36 37 37 37 38 38 39 39 40 41 41 42 43 44 44 45 45
28 28 28 29 29 28 29 29 29 30 30 30 31 31 32 32 33 33 33 34 35 35 35 36 36 37 37 38 38 39 39 40 41 41 42 43 43 43 43 44 45 46 47
29 29 29 30 30 29 30 30 30 30 30 31 31 32 32 32 33 34 34 35 35 35 36 37 38 38 39 39 40 40 41 42 42 43 44 44 45 45 44 44 46 47 47
30 30 30 30 30 30 30 30 30 31 31 31 31 32 32 33 34 34 35 36 36 37 38 39 39 40 40 41 41 42 42 43 44 45 45 46 46 47 47 46 46 48 49
30 30 30 30 30 30 30 30 30 31 31 31 32 32 33 34 35 36 36 37 37 38 39 39 40 41 41 42 42 43 43 44 45 46 47 47 48 48 49 49 49 49 50
30 30 29 29 29 29 30 30 31 31 32 32 33 33 34 35 36 37 37 37 38 39 39 40 41 42 42 43 43 44 44 45 46 47 48 49 50 50 51 51 51 51 51
30 29 29 30 30 30 30 31 32 32 33 33 33 34 35 36 36 37 38 38 39 40 41 41 42 42 43 44 44 45 46 47 48 48 49 50 51 52 53 53 54 53 52
30 30 30 31 31 31 31 31 32 32 33 33 34 35 36 36 37 37 38 38 39 40 41 42 42 42 44 45 46 46 47 48 49 49 50 50 52 53 54 54 55 55 55
30 30 30 30 31 31 31 32 32 33 33 34 35 35 36 36 37 38 38 39 40 41 42 42 42 43 44 45 46 47 48 49 50 50 51 52 53 54 55 55 56 57 58
30 30 30 31 31 31 32 32 33 33 34 35 35 36 36 37 38 38 39 40 41 41 42 43 43 44 44 45 47 47 49 50 51 51 52 53 54 55 55 56 57 58 59
30 30 31 31 31 31 32 33 34 34 35 35 36 36 37 38 38 39 40 41 41 42 43 43 44 44 45 46 47 48 50 51 51 52 52 53 54 55 56 58 59 60 61
30 30 31 31 31 32 33 33 34 34 35 35 36 37 38 38 39 40 40 41 42 43 43 43 44 45 46 47 48 49 50 51 51 52 53 54 55 57 58 59 60 62 63
31 31 31 31 32 33 33 34 34 34 35 35 36 37 38 38 39 40 41 42 42 43 43 44 45 46 47 48 49 50 51 51 52 53 54 56 57 58 60 61 62 63 64
32 32 32 33 33 33 33 34 34 34 35 36 37 38 38 39 39 40 41 42 43 43 44 45 46 47 48 48 49 50 51 52 53 54 56 57 58 59 61 62 63 64 65
33 33 33 33 33 33 34 34 35 36 36 37 38 39 39 40 40 41 42 42 43 43 44 45 46 47 48 49 50 51 52 53 54 55 56 57 59 60 61 62 64 65 66
34 34 35 35 34 34 34 35 36 37 38 38 39 40 40 40 41 41 42 43 43 44 45 46 47 48 49 50 51 52 53 54 55 56 57 58 59 61 62 64 65 66 66
35 35 35 36 35 35 35 36 37 38 39 39 40 40 40 41 42 42 43 44 44 45 46 47 48 49 50 51 52 53 54 55 56 57 58 59 61 62 64 65 65 65 65
35 36 36 36 36 36 37 38 38 39 39 40 40 41 41 42 43 43 44 45 46 47 48 48 49 50 51 52 54 55 56 56 57 58 59 61 62 64 65 66 65 65 65
36 36 36 36 36 37 37 38 39 39 40 40 41 42 42 43 44 45 45 46 47 48 48 49 50 51 52 54 55 56 57 58 58 60 61 62 64 65 65 66 65 65 65
37 37 37 36 36 37 38 39 39 40 40 41 42 42 43 45 45 46 47 47 48 49 49 50 51 53 54 55 57 58 59 59 60 61 62 63 65 65 65 65 65 65 66
37 37 37 37 37 38 38 39 40 41 41 42 43 44 45 46 46 47 48 49 49 50 51 52 53 54 55 57 58 59 60 60 61 62 63 65 65 65 65 65 66 66 66
37 37 37 38 38 38 39 40 41 41 42 43 44 45 46 47 47 48 49 49 50 51 52 53 54 55 56 58 59 59 60 61 62 63 65 65 65 64 64 65 65 65 65
38 38 38 38 38 39 40 41 42 43 44 44 45 46 47 47 48 49 50 50 51 52 53 54 55 56 58 58 59 59 60 61 62 64 64 64 64 64 64 64 64 63 63
39 39 39 39 39 40 41 42 43 44 44 45 46 47 48 48 49 50 51 52 53 54 55 56 57 58 58 58 59 60 61 62 63 64 63 63 63 62 63 62 62 61 59
39 39 40 40 40 41 42 43 44 45 45 46 47 48 48 49 50 51 52 53 54 55 56 58 59 59 59 60 60 61 62 63 64 63 63 62 62 62 61 60 59 58 56

GEFSMW_500_meanwind_156.txt.gz
Wind_Speed
27 27 26 26 25 25 25 25 26 26 26 26 26 27 27 28 29 29 29 30 30 30 31 32 32 32 33 33 34 34 35 35 35 36 36 36 37 38 38 39 40 40 41
29 28 27 27 27 26 26 27 27 27 27 27 27 28 29 29 29 30 30 30 30 30 31 32 33 33 34 34 35 35 36 36 36 37 37 38 38 39 40 40 41 41 42
30 29 29 28 28 28 28 28 28 28 28 28 28 29 29 30 30 30 31 31 31 31 32 33 34 34 34 35 35 36 37 37 38 38 39 40 40 40 40 41 42 43 44
31 30 30 29 29 29 29 28 28 28 28 29 29 30 30 31 31 31 31 31 32 33 33 34 34 35 35 36 36 37 38 39 39 39 40 41 42 42 42 42 43 44 44
32 31 31 30 30 30 30 29 29 29 29 30 30 30 30 31 31 31 32 32 33 33 34 35 35 35 36 37 38 38 39 40 40 41 41 42 42 43 44 43 44 44 45
33 32 32 31 31 31 30 30 30 30 30 30 30 31 31 31 31 32 32 33 33 34 35 35 36 36 37 38 38 39 40 41 41 41 42 43 43 44 45 45 45 45 46
33 33 32 32 32 31 31 31 31 31 30 30 31 30 30 31 31 32 33 33 34 34 35 36 36 37 38 38 39 40 41 41 42 42 43 44 44 45 46 47 47 47 47
34 34 34 33 33 32 31 31 31 31 31 31 31 30 31 31 32 32 33 34 34 35 36 36 37 38 39 39 40 41 42 43 43 43 44 45 45 46 47 48 49 49 48
35 35 35 34 33 33 32 32 31 31 31 31 31 31 31 32 32 33 34 35 36 36 37 37 38 39 39 40 41 42 43 44 44 44 45 46 47 47 48 49 50 51 51
36 36 36 35 34 34 33 33 32 31 31 31 31 31 32 32 33 34 35 36 37 37 38 38 39 39 40 41 42 43 44 44 44 45 47 47 48 49 49 50 51 52 53
36 36 36 35 34 34 34 33 33 32 32 32 32 32 33 33 34 35 36 36 37 38 38 39 39 40 41 42 43 43 44 45 46 46 48 49 49 50 50 51 53 54 55
36 36 35 34 34 34 34 34 33 33 33 33 33 33 34 34 35 36 37 37 38 39 39 40 40 41 42 43 44 44 45 46 47 48 49 49 50 51 52 53 54 55 56
35 35 35 35 35 35 35 35 34 34 34 34 34 34 35 35 36 37 38 39 39 40 40 41 41 42 43 44 45 45 46 47 48 49 49 50 51 52 53 55 56 57 58
35 35 36 36 35 35 36 36 35 35 35 35 35 36 36 36 37 38 39 39 40 41 41 42 43 43 44 45 46 46 47 48 49 49 50 51 52 54 55 56 57 58 59
35 35 36 36 36 36 36 36 36 36 36 36 37 37 37 37 38 39 39 40 41 41 42 43 44 45 45 46 47 47 48 49 50 50 51 53 54 55 56 56 57 59 60
36 35 36 36 36 36 36 36 36 36 37 37 38 38 38 38 39 40 40 41 41 42 43 44 45 45 46 47 47 48 49 50 50 52 53 54 54 55 56 57 59 60 61
36 36 35 36 36 37 37 37 37 37 38 38 39 39 39 40 40 41 41 41 42 43 44 45 45 46 47 47 48 49 50 50 51 53 54 55 55 56 57 58 60 61 62
38 37 36 36 37 38 39 39 39 38 39 39 39 40 41 41 41 41 42 43 43 44 45 46 46 47 48 49 49 50 51 51 53 54 55 56 57 58 59 60 61 62 63
38 38 38 38 38 39 39 40 39 39 39 40 40 41 42 42 42 43 43 44 45 45 46 46 47 48 48 49 50 51 52 53 54 55 56 57 58 59 60 61 62 62 63
39 40 40 39 39 39 39 39 39 39 39 40 41 41 42 43 43 43 44 45 45 46 47 47 48 49 49 50 51 53 54 54 55 56 57 58 59 59 60 62 62 62 63
40 40 40 40 40 39 39 39 39 39 40 41 41 42 43 43 43 44 45 45 46 47 47 48 49 50 51 52 53 54 55 56 56 57 57 58 59 60 61 62 62 62 63
41 41 40 40 40 39 39 39 39 40 41 41 42 43 43 43 43 44 45 46 46 47 48 49 50 51 52 53 54 55 56 56 57 57 58 58 59 60 61 61 61 62 63
41 40 40 39 39 39 39 39 40 40 41 41 42 43 43 44 44 45 46 46 47 48 49 50 51 52 53 54 55 55 56 57 57 58 58 58 59 60 60 61 61 62 62
39 39 39 39 38 39 39 40 40 41 41 42 42 43 44 44 45 45 46 47 48 49 50 51 52 52 53 54 55 55 56 57 58 58 58 59 60 60 60 61 61 62 62
38 39 39 39 39 39 40 40 40 41 41 42 43 44 44 44 45 45 46 48 49 50 51 51 52 53 54 54 55 56 57 57 58 58 58 59 60 60 60 61 61 62 61
38 39 40 41 40 40 40 40 41 41 42 43 43 44 44 45 45 46 47 48 49 50 51 52 53 54 54 55 55 56 57 57 58 59 59 59 60 60 60 61 61 61 60

GEFSMW_500_meanwind_162.txt.gz
Wind_Speed
31 31 30 29 29 28 28 28 27 27 27 26 27 27 27 27 27 27 27 27 27 27 27 27 28 28 29 29 30 31 31 32 33 33 34 34 35 36 36 37 37 38 38
33 33 32 31 30 30 29 29 29 28 28 28 28 28 28 28 28 28 28 28 28 28 28 28 28 29 29 30 31 31 32 33 34 34 35 35 35 36 37 37 38 38 39
35 34 34 33 32 31 31 31 30 29 29 29 30 30 30 29 29 30 29 29 29 29 29 29 29 30 30 30 31 32 33 34 35 35 36 37 36 37 37 38 39 39 40
36 36 35 35 34 33 32 32 32 31 30 31 31 30 30 30 31 30 30 30 30 30 30 30 31 31 31 31 32 33 34 35 35 36 37 38 39 39 38 38 39 40 41
37 37 36 36 35 34 34 33 33 32 32 32 32 31 32 32 32 31 31 31 31 31 31 31 32 32 32 32 33 34 35 36 36 37 38 39 40 40 41 40 41 41 42
38 37 37 36 36 35 35 34 34 34 33 33 33 32 33 33 32 32 32 32 32 31 32 32 32 33 33 34 34 35 36 37 38 38 39 40 41 41 42 43 43 43 43
39 38 38 37 37 36 36 36 35 35 34 34 33 33 34 34 33 33 33 33 32 32 32 33 33 34 34 35 36 37 37 38 39 39 40 41 42 43 44 45 45 45 45
40 39 39 39 38 37 37 37 36 35 35 34 34 34 34 34 34 33 33 33 33 33 33 34 34 35 35 36 37 37 38 39 40 41 42 42 43 44 45 46 47 47 46
39 39 39 39 39 38 38 37 37 37 36 35 35 35 35 35 34 34 34 34 34 34 35 35 35 36 37 37 38 38 39 40 41 42 43 43 44 45 46 47 48 49 49
39 39 39 39 39 39 39 39 38 38 38 37 36 36 36 36 36 35 35 35 36 36 36 36 37 37 38 38 39 40 41 41 42 43 44 44 45 47 48 49 49 51 52
39 39 39 39 40 40 39 39 39 39 38 38 38 37 37 37 36 36 36 36 37 37 37 38 38 39 39 39 40 41 42 42 43 44 45 46 47 48 49 50 51 52 54
40 40 40 40 40 40 40 40 40 40 39 39 39 38 37 37 37 37 37 38 38 38 39 39 40 40 40 40 41 42 43 44 44 45 46 47 47 48 50 51 52 53 55
40 40 41 41 41 41 41 41 41 41 41 40 39 39 38 38 38 38 38 38 39 39 40 40 41 41 41 41 42 43 44 45 46 46 47 47 48 50 51 52 53 54 55
41 41 40 40 41 42 42 42 42 42 41 40 40 40 39 39 39 39 39 39 40 40 41 41 42 42 42 42 43 44 45 46 46 47 47 49 50 51 52 53 54 55 56
41 41 41 40 41 42 42 42 42 41 41 41 41 40 40 40 40 40 40 40 40 41 42 42 42 42 43 43 44 44 45 46 47 48 49 50 51 52 53 54 55 57 57
43 42 41 41 42 42 42 42 42 41 41 41 41 40 40 40 40 40 41 41 42 42 42 42 42 43 43 44 44 45 46 46 48 49 50 51 52 53 54 55 57 58 59
44 44 44 43 42 42 42 42 42 41 41 41 40 40 40 40 40 41 41 42 42 42 43 43 43 43 44 44 45 46 47 48 49 50 51 52 53 54 55 56 57 58 59
44 44 45 44 42 42 42 42 42 41 41 41 41 40 40 40 41 41 41 42 43 43 43 43 43 44 44 45 46 47 48 49 50 51 52 53 54 55 56 57 58 59 60
43 43 44 44 42 42 42 42 42 42 42 42 41 41 41 41 42 42 42 42 43 43 43 43 44 44 45 46 47 48 49 50 51 52 53 53 54 55 57 58 59 59 60
43 42 42 43 43 42 43 43 42 42 42 42 41 41 42 42 42 43 43 43 43 44 44 44 45 45 46 47 48 49 50 51 51 52 53 54 55 56 58 59 59 60 60
43 41 41 42 42 42 43 43 42 42 41 42 42 41 42 42 43 43 43 43 44 44 45 45 46 46 47 48 49 49 50 51 51 52 54 55 56 57 58 59 59 60 60
44 42 41 41 42 42 42 42 42 41 41 41 42 42 41 42 42 43 44 44 44 45 45 46 46 47 48 48 49 50 51 51 52 53 55 56 57 58 59 59 60 60 61
43 42 41 41 41 41 41 41 41 41 41 42 42 42 42 42 42 44 44 45 45 45 46 46 46 47 48 49 50 51 51 52 53 54 55 56 57 58 59 59 60 61 62
41 42 42 41 41 41 41 41 41 41 42 42 42 42 42 42 43 43 44 44 44 45 45 46 47 47 48 49 50 51 52 53 54 55 56 57 58 59 59 59 61 62 63
42 43 42 42 41 41 41 41 42 41 41 41 42 42 42 43 43 43 43 43 44 45 46 47 47 48 49 50 51 52 52 53 54 55 56 57 57 58 58 60 61 62 62
41 42 42 42 41 41 41 41 41 41 41 40 41 41 42 42 43 43 43 44 45 45 46 46 47 48 49 50 50 51 52 53 54 55 56 57 57 58 59 60 61 61 61

GEFSMW_500_meanwind_168.txt.gz
Wind_Speed
33 32 31 30 29 29 28 28 27 27 27 27 27 26 26 25 25 25 26 26 26 26 27 27 27 27 27 28 28 28 28 29 29 29 29 29 30 30 31 32 33 34 35
35 34 34 33 32 31 30 30 29 29 29 29 28 28 27 27 27 27 27 27 27 28 28 28 28 28 29 29 29 30 30 30 30 30 30 30 30 32 32 33 34 35 36
37 36 36 35 34 33 32 32 32 31 30 30 30 29 29 29 28 28 28 28 29 29 29 29 29 29 30 30 30 30 31 31 31 32 32 32 32 33 33 34 35 36 37
39 38 38 37 36 36 35 34 33 33 32 31 31 30 30 30 30 30 30 30 30 30 30 30 30 30 31 31 31 32 32 32 32 33 33 34 34 34 34 35 36 37 38
41 40 39 38 38 37 37 36 35 35 34 33 32 32 32 31 31 31 31 31 31 32 32 32 32 32 32 32 33 33 33 34 34 34 35 35 36 36 37 37 37 39 39
42 41 40 39 38 38 37 37 37 36 36 35 34 34 33 33 33 32 32 32 33 33 33 33 33 33 33 33 34 34 35 35 35 36 36 37 37 38 39 39 39 40 40
42 41 41 40 39 38 38 38 38 37 37 36 36 35 34 34 33 34 33 33 34 34 34 34 34 34 35 35 35 36 36 36 37 37 38 39 40 41 41 42 41 41 41
42 41 41 40 40 39 39 38 38 38 38 37 37 36 36 35 35 35 35 34 34 35 35 35 36 36 36 36 36 36 37 37 38 38 39 40 41 42 43 43 43 43 43
41 41 42 41 40 40 39 39 39 39 39 38 37 37 37 36 36 36 36 36 36 36 36 37 37 37 37 37 37 37 38 38 39 40 41 42 43 43 44 45 45 46 45
41 41 42 42 41 40 40 39 39 39 39 39 38 38 38 37 38 38 37 37 37 38 38 38 38 38 38 38 38 38 39 39 40 41 42 43 44 44 46 46 47 48 48
41 41 41 42 41 40 40 40 40 40 40 40 40 39 39 39 39 39 38 38 39 39 39 39 39 39 39 39 39 39 40 40 41 42 43 44 45 46 47 47 48 49 49
40 41 41 41 41 41 41 40 41 41 41 41 41 41 41 41 40 40 40 40 39 40 40 41 40 39 40 40 40 40 41 41 42 43 44 45 46 47 47 48 48 49 50
40 41 41 42 42 42 42 42 42 42 42 42 43 43 42 42 41 41 41 41 41 41 41 41 41 40 40 40 41 41 42 42 43 44 45 46 47 48 48 48 49 50 51
40 41 42 43 43 44 44 44 43 43 43 44 44 44 44 44 43 43 43 42 42 42 42 41 41 41 41 41 42 42 43 43 44 45 46 47 48 48 48 49 50 51 52
41 41 41 42 42 43 44 44 44 44 44 45 45 45 45 44 44 44 44 44 43 43 42 42 42 42 43 43 43 43 44 44 45 46 46 48 49 49 50 50 51 52 53
41 41 42 42 42 43 43 44 44 44 45 45 45 45 46 46 45 45 46 45 44 44 44 43 44 44 43 43 44 45 45 46 46 47 47 48 49 50 50 51 52 52 53
42 43 42 42 42 43 44 44 44 45 46 46 46 46 46 46 46 46 46 46 45 45 45 45 44 44 43 44 45 45 46 47 47 48 48 49 49 50 50 51 52 53 54
44 44 44 44 44 44 45 45 45 45 46 46 46 46 46 45 45 45 45 45 45 45 45 45 44 44 44 44 45 46 47 47 48 48 49 49 49 50 50 51 53 54 55
46 45 44 44 45 45 45 46 46 45 45 45 45 45 45 45 45 45 44 44 45 45 45 45 45 44 44 44 45 46 47 47 48 49 49 50 50 50 51 52 54 54 56
48 47 46 46 46 45 46 46 45 45 45 45 45 45 45 44 44 45 45 45 45 45 46 45 45 45 45 45 46 47 47 48 48 49 49 49 50 51 52 53 54 55 57
46 46 46 47 46 45 45 45 45 45 45 45 45 45 44 44 45 45 45 45 45 45 45 45 45 46 46 46 46 47 48 48 48 48 49 49 50 51 52 53 54 56 57
45 45 45 45 45 46 46 46 46 46 46 46 46 46 45 45 46 46 45 46 46 45 45 45 45 46 46 46 47 47 47 48 48 49 49 50 51 51 52 53 55 56 57
45 46 45 45 45 46 47 47 46 46 46 46 46 46 46 46 46 46 46 46 46 46 46 46 46 46 46 46 47 46 47 48 48 48 49 50 50 51 52 54 55 56 57
45 45 45 45 46 46 46 47 47 47 47 47 46 46 47 47 47 47 47 46 46 46 46 46 46 46 46 45 45 46 47 47 48 48 49 50 51 51 52 53 55 56 57
44 45 45 45 46 46 45 46 46 47 47 47 48 47 47 47 47 47 47 46 46 46 46 46 46 46 45 44 44 45 45 46 47 48 48 49 50 50 52 53 55 56 56
44 44 45 45 45 45 44 44 45 46 46 46 46 46 46 46 46 46 46 45 45 45 45 45 45 45 45 44 44 45 46 46 47 48 49 49 50 51 52 53 55 56 56

GEFSMW_500_meanwind_174.txt.gz
Wind_Speed
38 38 37 37 36 35 33 32 32 31 31 30 29 29 29 29 29 29 29 29 29 29 28 28 28 29 29 30 30 30 31 31 32 32 32 32 33 33 33 34 34 35 35
40 39 39 38 37 36 35 34 33 33 32 32 31 31 31 31 30 30 30 30 30 30 30 30 30 31 31 31 32 32 32 33 33 33 33 33 33 34 35 35 36 36 37
42 41 41 41 40 38 37 36 35 35 35 34 34 33 33 32 32 32 32 32 32 32 32 32 32 32 32 33 33 34 34 34 34 34 35 35 34 35 35 36 37 38 39
43 43 43 43 42 41 40 39 38 38 37 37 36 35 34 34 34 34 34 34 33 33 33 34 34 34 34 34 34 35 35 35 35 36 36 37 37 37 37 37 38 39 40
45 44 44 44 44 43 43 41 40 40 40 39 38 37 36 36 36 36 36 36 35 35 35 35 35 35 35 36 36 36 36 36 37 37 38 38 39 39 39 39 39 40 41
46 46 46 45 45 45 45 44 42 41 41 41 40 40 39 38 38 38 38 37 37 36 36 37 37 37 37 37 37 37 37 38 39 39 39 40 40 41 41 41 41 42 42
46 46 47 47 47 46 46 46 44 43 43 43 42 42 41 41 40 40 40 39 38 38 38 38 38 39 39 39 39 39 39 40 40 41 41 42 42 42 43 43 43 43 44
46 46 47 47 48 48 47 47 46 45 45 44 44 43 42 42 41 41 41 41 40 40 40 40 40 40 40 40 41 41 41 41 41 42 43 43 43 44 44 44 45 45 45
46 46 47 47 48 49 49 48 48 47 46 46 45 45 44 43 42 42 42 42 42 42 42 42 42 41 41 41 42 42 42 43 43 43 44 44 44 45 45 45 46 47 46
46 46 47 48 49 50 49 49 49 48 48 47 46 45 45 44 45 44 43 43 43 44 44 43 43 42 42 42 43 43 43 44 44 44 45 44 45 46 46 46 47 47 48
46 47 47 49 49 50 50 50 49 48 48 47 47 46 46 46 45 45 44 44 45 45 45 44 44 44 44 43 44 44 44 44 45 46 46 45 46 47 47 47 48 48 49
45 46 46 48 48 49 49 50 49 49 48 48 48 47 47 47 46 46 45 45 45 45 45 45 44 44 44 44 44 44 45 45 46 46 47 46 46 46 47 47 48 49 50
44 45 45 46 47 48 48 49 50 50 49 49 49 48 48 48 47 47 46 46 46 46 46 45 45 45 45 44 45 45 46 46 47 47 47 47 47 47 48 48 49 50 51
45 45 45 46 47 48 48 48 49 50 50 50 50 49 49 48 48 48 48 47 47 47 47 47 47 46 46 46 47 47 47 48 48 48 48 48 47 48 48 49 50 51 51
45 46 46 46 47 48 48 49 49 50 51 51 50 49 49 49 48 49 49 49 48 48 48 48 48 48 49 49 49 48 48 48 48 48 48 48 47 48 49 49 50 51 52
45 46 46 46 46 48 48 49 50 51 52 52 51 51 50 49 49 49 49 50 50 49 49 50 49 49 49 49 49 49 49 49 49 49 48 48 48 48 49 50 51 51 52
47 48 48 47 47 48 48 49 49 51 51 52 53 52 51 51 50 51 51 51 51 51 52 51 51 51 50 50 50 50 51 50 50 49 49 49 49 50 50 51 51 51 52
47 48 48 48 48 49 50 51 51 51 51 52 52 51 51 52 52 53 53 53 53 53 53 53 52 52 51 51 51 51 51 51 50 49 49 49 49 50 51 51 51 52 52
47 48 48 49 49 50 51 51 52 52 51 50 51 51 51 52 53 53 53 53 54 53 52 52 52 52 51 51 51 51 51 50 49 49 49 49 49 50 51 52 52 52 52
47 48 48 49 49 50 51 51 51 53 52 51 51 51 51 51 52 53 53 54 54 54 53 52 52 52 51 51 51 51 51 50 49 49 49 50 50 51 51 52 52 52 52
46 47 48 48 48 50 50 51 51 51 51 50 51 51 51 52 52 53 53 53 53 54 53 53 52 52 51 51 51 51 51 51 51 51 51 51 51 51 51 52 52 52 52
44 45 46 47 47 48 49 50 50 51 51 50 50 50 50 51 52 52 52 52 53 53 53 53 52 51 51 51 52 51 51 51 52 52 52 52 51 51 51 52 52 51 51
42 43 45 46 47 48 48 48 49 50 50 49 49 49 50 50 50 51 51 51 51 52 52 52 51 51 50 51 51 51 51 52 53 52 51 51 51 51 51 52 51 50 51
42 42 44 46 46 46 46 46 47 47 48 49 48 48 49 49 49 50 50 50 50 50 50 50 50 50 50 50 50 49 50 50 50 50 49 49 50 50 51 51 50 50 51
43 43 44 44 45 45 46 46 47 47 47 48 49 49 49 49 49 49 49 50 51 51 50 50 49 50 50 49 49 49 49 48 48 48 48 48 48 49 49 49 49 50 51
41 42 43 43 43 44 45 45 46 46 47 48 48 48 48 49 49 49 49 49 50 50 50 50 49 48 48 47 47 47 48 47 46 46 46 46 47 48 47 48 48 49 50

GEFSMW_500_meanwind_180.txt.gz
Wind_Speed
42 42 42 42 42 42 41 40 39 39 38 37 36 35 35 35 35 34 34 34 33 33 32 32 32 32 32 31 31 31 31 31 31 31 32 32 32 32 33 34 34 35 35
43 43 44 44 43 43 43 42 42 41 40 39 38 37 37 37 36 35 35 35 35 34 33 33 33 33 33 33 33 33 33 32 33 33 33 33 33 34 34 35 35 36 36
44 44 44 45 45 45 45 44 43 43 42 42 41 40 39 38 37 37 37 37 37 36 36 35 35 34 34 34 34 34 34 34 34 34 35 34 34 35 35 36 36 37 37
44 44 45 46 46 46 46 46 45 44 44 43 43 42 41 40 39 39 39 39 39 38 38 37 37 36 36 35 35 35 36 36 36 36 36 36 36 36 36 37 37 38 39
43 44 45 46 46 46 47 47 46 46 45 45 44 43 42 42 42 42 41 41 40 40 40 39 39 38 38 38 38 37 38 38 38 37 37 37 38 38 38 38 38 39 40
43 43 45 45 46 46 47 47 47 47 47 46 46 45 44 44 44 44 43 43 42 42 42 41 41 40 40 40 40 39 39 39 39 39 39 39 39 39 39 39 39 40 41
43 43 44 45 45 46 46 47 48 48 48 47 47 46 46 46 46 46 45 45 44 44 43 43 43 42 42 42 42 41 41 41 41 41 41 41 41 40 40 40 40 41 41
44 45 45 45 45 47 47 48 49 49 49 48 48 47 47 47 47 48 48 47 46 45 45 45 45 44 43 43 43 43 42 43 42 42 42 42 42 42 42 41 42 42 42
44 45 45 45 45 46 47 48 49 49 50 49 49 49 48 49 48 48 48 48 48 47 47 47 46 45 45 44 44 44 43 43 43 43 44 44 43 43 43 43 43 44 44
42 44 45 46 46 47 48 48 49 49 50 50 50 50 50 50 50 49 48 49 49 49 49 49 48 47 47 46 46 45 44 45 45 45 45 44 44 44 44 44 44 45 45
41 43 44 45 46 47 48 50 50 50 51 51 51 51 52 51 51 51 50 50 51 51 51 51 50 50 49 48 47 47 47 47 46 46 46 45 45 45 45 45 45 46 46
41 42 43 45 46 47 48 49 50 50 51 51 51 51 51 53 52 52 52 52 52 52 52 52 51 51 50 50 49 48 48 48 48 47 47 46 46 46 46 46 46 47 47
41 42 42 44 45 46 48 49 50 51 51 51 51 53 52 52 53 52 52 53 53 53 53 52 51 51 51 50 50 50 49 49 48 48 47 47 47 47 47 47 47 47 47
40 41 43 44 45 47 48 50 50 51 51 52 53 53 53 53 52 53 53 53 53 53 53 53 53 52 52 52 52 51 51 50 49 49 49 48 48 48 48 48 47 48 48
42 42 43 45 46 46 48 49 50 51 52 52 52 53 53 53 53 52 51 52 53 53 54 54 53 53 52 52 51 51 50 49 49 49 49 48 48 48 49 49 48 49 49
42 42 43 45 46 46 46 48 49 50 51 52 52 53 54 54 54 53 51 51 51 52 53 53 52 52 52 51 51 50 50 49 48 48 48 49 48 49 49 49 50 50 50
42 42 42 42 44 45 46 47 47 48 50 52 53 53 53 53 53 53 52 51 50 50 51 51 52 51 51 51 50 51 51 49 49 49 49 49 49 49 49 50 50 50 50
42 42 43 43 43 43 44 46 47 48 49 50 52 53 53 53 52 52 53 52 50 50 50 51 51 52 51 51 50 51 51 50 50 50 50 50 49 49 49 49 49 50 50
42 42 43 43 44 44 43 44 45 47 48 49 50 51 52 53 53 52 53 53 53 51 50 50 51 51 51 50 50 51 50 50 50 49 50 50 49 49 50 50 50 50 49
42 41 42 42 43 44 45 45 45 46 47 48 49 50 51 52 52 52 53 53 53 52 50 50 51 51 50 50 50 50 50 49 49 49 48 49 49 49 50 50 50 50 50
41 41 42 42 42 43 44 45 45 46 46 46 47 48 50 50 51 51 52 52 52 52 52 51 51 51 50 50 50 50 50 50 50 49 49 50 50 50 50 50 49 49 49
41 42 42 42 42 42 43 44 44 45 45 46 46 47 48 49 50 51 51 51 50 51 51 50 50 50 50 49 49 49 50 50 51 51 50 50 50 50 50 50 49 49 49
40 41 41 41 42 43 43 44 44 44 44 44 45 46 47 47 48 49 49 48 48 48 49 48 48 47 47 48 48 49 50 50 50 50 50 51 50 50 50 49 49 49 49
39 40 40 41 41 42 42 42 43 43 44 43 44 45 45 46 46 46 46 46 46 46 47 47 47 46 46 47 48 48 48 47 48 49 49 49 48 48 48 47 47 48 48
38 39 39 39 39 39 40 40 41 42 43 43 43 44 45 45 44 44 45 45 45 45 45 46 46 47 46 45 44 44 45 45 46 46 46 45 45 46 46 45 46 47 47
37 38 38 38 38 38 38 38 39 40 40 41 42 42 43 43 42 42 43 43 43 43 43 43 43 43 43 43 43 43 43 43 43 44 44 44 43 43 43 44 45 45 45

GEFSMW_500_meanwind_186.txt.gz
Wind_Speed
43 43 43 44 44 43 43 43 43 43 44 44 43 43 42 41 41 40 39 38 38 38 38 37 37 37 37 37 37 37 36 35 35 35 35 35 35 35 35 35 35 36 36
43 43 43 44 45 45 44 45 45 44 44 44 45 45 45 44 43 43 42 40 40 40 40 40 40 39 39 39 38 38 38 37 37 37 37 37 36 36 36 36 37 37 37
42 43 44 44 45 45 45 45 45 45 45 45 46 47 46 45 44 43 42 42 42 42 42 42 42 41 41 40 40 39 39 39 39 39 39 39 38 38 38 38 38 38 38
40 41 42 44 44 45 45 45 46 46 47 47 47 47 47 46 45 44 44 44 44 44 44 44 43 42 42 42 41 41 40 40 40 40 40 40 40 40 39 39 39 39 39
40 40 40 42 43 44 45 45 45 46 47 47 47 47 47 47 46 46 45 45 45 45 45 45 45 44 43 43 43 42 41 41 41 41 41 42 42 41 41 40 39 40 40
39 39 40 41 42 43 44 44 45 46 46 47 47 47 47 48 48 47 46 46 46 47 46 46 46 45 45 44 44 44 43 43 43 43 43 43 43 43 42 42 41 41 41
38 39 40 41 41 42 43 44 46 47 47 48 48 48 48 49 49 49 48 47 47 47 47 47 48 47 46 46 45 45 44 44 44 44 44 44 44 43 43 43 42 42 42
39 40 41 41 42 42 43 45 46 47 48 48 48 48 49 50 50 50 49 49 48 48 48 48 48 48 48 47 47 46 46 46 46 46 46 45 45 45 45 45 44 44 44
41 41 41 42 42 43 43 45 46 47 49 49 49 49 49 50 50 51 50 50 50 50 50 50 50 50 51 50 49 48 48 48 47 47 47 46 46 46 46 46 47 46 45
41 42 42 43 43 43 44 45 47 48 49 49 50 50 50 51 51 51 50 50 51 52 51 51 51 52 52 51 51 51 49 49 49 48 48 47 47 47 48 48 48 48 47
42 42 42 42 43 43 43 45 47 49 50 50 50 50 50 51 51 51 51 52 52 52 52 52 53 53 53 53 53 52 51 50 50 50 49 48 48 49 48 48 48 48 48
43 44 44 44 43 43 43 44 46 48 49 50 51 51 51 52 52 51 52 52 53 53 53 54 54 54 54 54 54 53 52 51 50 50 50 49 49 49 49 49 50 50 50
43 44 44 44 44 44 44 44 45 47 48 49 50 50 51 51 52 52 52 52 53 54 54 54 55 54 55 55 55 53 53 52 51 50 50 50 50 49 50 50 50 50 51
43 43 44 45 45 45 45 45 45 46 47 48 49 50 51 51 52 53 53 53 54 54 55 55 54 54 54 55 54 53 53 53 52 51 51 51 51 51 51 51 51 51 51
45 45 45 45 45 45 45 45 45 46 47 47 49 50 51 51 52 53 54 54 55 55 55 55 53 53 54 54 53 53 53 53 53 53 53 52 52 53 52 52 52 51 51
44 44 45 45 45 45 44 44 45 46 47 47 48 49 50 52 53 52 52 53 54 54 54 54 53 52 52 52 52 52 52 52 52 53 53 53 53 52 52 51 50 50 50
42 42 42 43 44 44 44 44 44 45 46 47 48 49 50 51 52 53 52 52 53 53 53 53 52 51 51 51 51 51 51 51 51 51 52 53 52 52 52 52 51 50 49
41 41 42 42 43 44 44 44 44 45 46 47 47 49 50 51 51 52 52 51 51 52 52 51 51 50 49 50 49 49 49 49 49 49 50 50 50 50 51 51 49 49 49
41 41 42 42 43 44 45 45 44 44 45 46 47 48 49 50 50 51 51 50 50 50 50 49 49 49 48 49 48 48 49 48 48 48 48 48 48 48 48 47 47 47 48
42 41 41 41 42 43 44 44 44 43 43 44 45 46 47 48 48 49 49 49 48 48 48 48 47 47 47 48 48 49 49 48 48 47 47 46 46 46 47 47 47 48 48
43 43 42 41 41 41 42 42 43 43 42 42 43 44 45 46 46 47 48 48 48 48 48 47 47 46 46 47 47 47 47 47 47 47 46 46 45 46 46 47 47 48 48
42 42 42 41 41 40 41 41 41 42 41 41 42 42 43 43 44 44 45 46 47 48 48 48 47 46 45 45 46 46 46 46 47 47 46 46 46 46 46 47 48 48 48
40 40 40 40 40 40 40 40 40 41 41 40 40 40 41 42 43 44 44 44 44 44 44 45 45 45 45 45 44 45 46 46 47 46 46 46 46 46 46 46 46 46 46
38 38 38 37 37 37 38 38 38 39 39 39 38 38 39 39 40 41 42 42 43 44 44 45 44 44 45 46 45 45 45 45 44 44 44 44 44 44 44 44 45 45 44
37 37 37 36 36 36 35 36 36 36 37 37 37 36 37 38 38 39 41 41 41 41 42 43 43 44 44 45 45 44 43 43 43 44 43 42 42 42 42 42 42 42 43
36 36 35 34 34 34 34 34 35 35 36 36 36 36 37 37 38 39 39 40 40 41 41 40 41 41 42 43 43 43 42 42 42 42 43 42 41 41 41 41 41 41 42

GEFSMW_500_meanwind_192.txt.gz
Wind_Speed
38 39 39 40 41 41 41 42 42 43 45 45 44 44 44 44 43 42 43 43 43 43 43 43 43 42 42 42 41 41 40 40 41 40 40 39 39 38 38 38 38 38 38
38 38 40 40 41 41 42 42 43 44 45 45 45 45 45 45 44 44 44 44 45 45 45 45 44 44 44 43 42 42 41 41 42 42 42 41 41 40 40 40 40 39 39
38 38 39 40 40 40 41 41 41 43 44 44 45 46 46 47 46 45 45 45 46 46 46 46 45 45 45 45 44 44 43 42 43 43 43 43 42 42 42 42 42 41 41
37 38 39 40 40 40 40 40 41 42 42 44 45 45 46 47 47 46 46 47 47 47 47 47 46 46 46 46 46 45 45 44 44 44 44 44 44 44 43 44 44 43 43
37 38 40 40 41 41 41 41 41 41 41 42 44 45 46 47 48 48 48 48 48 48 48 48 47 47 47 47 47 46 46 46 46 46 46 45 45 45 45 45 44 44 44
37 38 39 40 40 41 42 42 41 41 42 43 43 44 45 47 48 49 50 49 49 49 50 49 49 48 48 48 49 48 48 47 47 48 47 47 46 45 45 45 45 44 44
37 38 39 40 40 41 42 42 42 42 42 43 44 44 46 48 48 49 50 51 50 51 51 51 50 49 49 49 50 50 49 49 49 49 49 49 48 48 47 47 46 46 46
37 38 39 40 41 41 42 43 44 43 44 45 45 46 46 47 48 49 49 50 50 50 50 51 52 51 51 51 51 51 51 51 50 50 50 50 49 49 49 48 48 47 47
38 38 39 40 41 42 42 42 44 45 45 46 46 46 46 47 48 49 49 50 50 51 51 52 52 52 52 52 52 52 52 51 51 51 51 51 51 51 51 50 49 49 49
38 39 39 39 41 41 41 42 44 44 45 45 46 47 48 49 49 50 49 50 51 51 52 52 53 54 54 54 54 53 52 52 52 52 52 51 51 52 52 51 51 51 50
39 40 40 41 41 41 42 43 43 43 44 45 46 47 48 50 51 51 51 51 52 53 52 53 53 54 55 55 55 55 54 54 53 53 53 52 52 53 53 52 52 52 52
39 40 41 41 41 42 42 42 43 43 43 45 46 47 48 49 50 51 51 52 53 53 53 54 54 54 55 55 56 55 55 55 54 53 53 53 53 53 52 53 53 52 52
40 40 40 40 41 42 43 43 44 45 45 45 45 46 47 48 49 50 51 52 53 53 53 54 54 54 55 55 55 55 55 55 54 53 52 51 52 52 52 52 52 52 52
41 41 40 40 41 42 42 44 45 46 47 47 46 46 47 48 50 50 51 52 53 53 53 53 53 53 53 53 54 54 54 53 53 52 51 51 51 52 51 51 50 50 51
40 41 41 42 42 43 44 44 45 46 47 48 47 47 47 48 49 50 51 52 53 53 52 51 50 51 52 52 52 52 52 51 52 52 51 51 51 51 50 50 50 50 51
40 40 41 41 42 42 43 44 44 45 47 48 48 48 49 49 49 50 50 50 51 52 52 51 50 50 50 50 50 52 52 51 51 50 49 49 50 50 49 49 49 49 51
41 41 41 41 42 42 42 43 43 44 45 47 48 48 49 50 50 49 49 48 49 51 52 51 50 49 49 49 48 49 50 50 49 48 48 49 49 49 49 50 50 50 50
43 43 43 43 42 43 43 43 43 44 45 46 48 49 49 50 49 48 47 47 48 49 50 50 49 48 47 47 47 47 48 49 48 47 47 48 48 49 49 50 49 49 49
42 42 43 43 42 42 43 43 43 44 45 45 46 47 48 47 47 47 47 47 47 47 48 48 47 47 46 46 46 46 48 48 48 47 47 47 47 47 48 48 48 47 48
41 41 42 42 42 42 42 43 44 44 43 43 44 45 45 43 43 44 45 46 46 45 45 46 46 46 46 45 46 46 46 46 46 47 47 46 45 46 47 47 46 45 45
41 42 43 43 42 42 42 42 42 43 42 41 42 42 42 42 41 41 42 42 42 43 43 44 43 44 44 44 44 44 45 45 45 45 45 45 45 45 45 45 44 44 45
42 43 43 43 42 41 41 41 41 40 40 40 40 41 41 40 40 40 40 40 40 41 41 42 43 42 42 43 42 43 44 44 44 43 43 43 43 43 43 43 43 43 44
42 42 42 40 40 39 40 39 39 39 39 39 38 38 39 40 39 38 38 38 38 38 39 39 40 40 40 41 42 42 43 43 43 42 40 41 41 41 41 41 42 42 41
40 40 39 38 38 38 38 38 37 37 37 36 36 36 36 37 38 37 37 36 36 37 38 38 39 39 39 39 40 40 41 41 41 41 40 39 40 40 40 41 41 41 40
39 39 38 37 37 37 37 35 35 35 35 34 33 33 34 34 34 35 35 34 35 36 36 37 38 38 38 39 39 39 38 38 39 38 38 39 39 38 39 40 41 41 42
38 38 37 36 36 35 34 34 33 33 33 33 33 32 32 33 33 33 33 33 34 35 35 36 37 38 38 38 38 38 38 38 37 37 37 37 38 38 39 39 39 40 41

GEFSMW_500_meanwind_198.txt.gz
Wind_Speed
35 36 37 38 39 40 40 40 40 42 43 44 44 45 45 46 47 47 47 47 47 47 47 46 46 46 47 47 47 46 46 45 45 45 45 44 43 43 43 43 42 41 42
36 37 38 39 40 41 42 42 42 42 43 44 45 46 47 47 48 48 48 48 48 48 47 48 47 47 47 48 48 48 47 47 47 47 47 47 45 44 45 44 43 43 43
37 38 39 40 40 41 42 42 42 43 43 44 45 46 47 48 48 48 49 49 49 49 49 49 49 49 49 49 49 49 49 49 49 49 49 48 47 47 46 46 46 45 45
38 39 40 41 41 41 43 43 43 43 44 45 45 45 47 47 48 49 50 50 51 51 50 50 50 51 51 51 50 50 51 52 51 51 52 51 50 50 49 48 47 47 47
37 38 40 41 41 41 42 42 42 42 43 44 45 45 45 47 47 48 49 50 51 52 52 52 52 53 53 52 52 53 53 54 53 53 53 53 53 52 52 51 49 49 49
36 37 38 40 41 41 41 42 42 42 43 44 45 45 45 47 47 47 48 48 49 51 52 52 52 53 53 53 54 54 54 55 55 54 54 55 54 54 54 53 52 52 52
36 37 38 39 41 42 42 43 43 43 44 45 46 46 46 47 47 46 47 47 48 49 50 51 52 53 54 54 55 56 55 56 56 56 55 55 56 55 55 55 54 54 53
36 37 38 40 41 42 43 44 45 45 45 46 47 47 47 47 47 46 47 48 49 49 50 52 52 53 54 56 56 57 56 56 57 57 56 56 56 56 56 56 55 55 54
36 38 39 41 42 42 43 44 45 46 46 46 47 47 47 47 48 48 48 49 49 50 51 52 52 53 54 56 57 57 57 57 58 58 58 57 56 56 56 56 56 55 55
38 39 41 41 42 43 43 44 45 46 46 46 47 47 47 48 49 50 50 51 51 51 52 52 52 53 54 55 57 58 58 59 58 58 58 58 57 57 57 56 56 55 55
38 39 41 41 42 42 43 43 44 45 46 46 47 48 48 49 49 50 51 51 52 52 53 53 52 52 53 54 56 57 58 58 58 57 57 57 56 57 56 56 56 56 54
39 40 41 42 42 42 43 44 44 46 46 47 48 48 48 49 50 50 51 52 52 52 53 54 54 54 53 54 55 56 57 58 57 56 56 56 55 55 54 54 55 54 54
40 40 41 42 42 43 43 44 44 45 46 47 48 48 49 50 50 51 51 52 52 52 52 54 54 54 55 55 55 56 56 56 56 55 55 54 54 54 54 54 54 54 53
41 41 41 42 43 43 44 44 44 45 45 46 47 48 50 50 51 51 51 51 51 50 51 52 53 52 53 55 55 56 55 54 53 53 53 52 52 52 53 53 53 52 52
41 42 42 42 43 43 44 44 45 45 45 46 47 48 49 50 50 50 50 49 49 49 49 49 50 52 53 53 53 54 54 52 52 51 51 51 51 52 52 52 51 51 51
42 43 44 44 44 43 43 44 45 46 47 47 48 49 49 49 48 49 49 50 50 50 49 49 50 51 52 51 50 51 51 51 50 49 49 49 50 50 51 51 50 50 50
43 43 44 44 44 44 44 45 45 47 48 49 49 48 47 47 47 48 49 50 49 49 50 50 50 50 50 49 48 48 49 50 49 49 48 48 48 48 49 49 50 50 50
44 44 44 44 45 45 45 45 46 47 47 48 48 48 46 46 46 47 48 49 49 49 49 49 49 48 48 48 47 48 48 48 48 49 48 46 46 47 48 49 50 50 49
45 44 44 44 44 44 44 45 45 46 47 47 47 46 46 46 47 47 47 48 48 47 47 48 47 47 46 47 47 47 47 47 46 45 45 45 46 45 46 47 47 47 47
46 45 44 44 44 44 44 44 44 45 45 44 43 44 44 45 46 46 46 46 46 46 47 46 46 45 45 44 44 44 44 44 44 44 44 45 45 44 45 45 45 46 46
45 45 45 45 44 44 44 44 44 44 43 42 42 43 44 45 45 45 45 45 44 44 44 43 44 44 43 42 41 41 42 42 42 42 43 43 44 44 43 43 43 43 44
45 46 46 45 44 44 44 44 44 43 43 42 42 42 43 43 44 43 43 44 44 43 42 42 42 42 41 40 40 41 41 41 41 41 41 42 42 43 42 42 42 42 43
45 46 46 45 44 44 44 44 43 42 42 41 41 41 41 41 41 41 41 40 40 40 39 39 39 39 39 39 38 39 39 38 39 39 39 40 40 41 41 41 41 41 41
44 44 44 44 44 44 44 43 43 43 41 40 40 39 39 38 38 37 37 36 36 36 36 35 35 36 36 36 36 36 36 37 37 37 38 38 39 40 39 38 37 37 37
43 43 42 42 42 42 42 42 41 41 40 40 39 38 38 36 35 34 33 33 33 33 33 33 33 32 32 32 33 34 33 34 35 35 36 36 36 36 36 35 35 34 34
42 41 41 41 41 40 40 40 40 39 38 38 37 36 35 34 33 32 31 31 32 32 31 31 30 30 29 29 30 30 31 31 32 33 34 34 34 34 33 33 33 33 33

GEFSMW_500_meanwind_204.txt.gz
Wind_Speed
34 35 36 37 38 39 40 40 40 41 42 42 43 43 44 45 46 46 46 47 47 47 48 48 48 49 49 49 49 49 49 49 49 49 49 49 49 49 48 48 48 47 46
34 34 35 36 38 39 40 40 41 42 43 44 44 45 45 46 47 48 48 48 48 48 49 49 50 50 51 51 50 50 50 50 50 51 51 51 50 50 50 50 49 49 48
33 34 35 36 37 38 39 41 43 43 44 45 46 47 47 47 47 47 48 49 49 49 50 50 50 51 51 51 52 52 51 51 51 52 52 51 51 51 51 50 50 50 51
33 34 35 36 37 38 40 42 44 44 45 45 46 46 47 47 48 48 49 49 50 50 50 51 51 51 52 52 53 52 52 52 52 52 52 52 52 52 51 51 52 52 53
34 35 36 37 38 39 41 42 44 44 45 45 45 45 46 46 47 48 49 49 49 50 50 51 52 52 52 52 52 53 53 52 53 53 53 54 54 54 55 54 53 54 55
35 35 37 37 38 39 41 42 43 43 44 44 45 45 46 46 46 47 48 48 48 49 50 51 52 52 52 53 53 53 54 54 54 54 54 55 54 55 56 56 55 56 56
36 36 37 37 38 39 40 41 42 42 43 43 44 44 45 46 46 47 47 47 47 48 49 50 51 52 52 53 53 54 54 55 55 55 55 55 55 56 57 57 57 57 57
37 37 38 38 39 40 40 41 41 42 43 43 44 45 46 46 46 47 47 47 46 47 48 49 50 51 52 52 53 53 54 55 55 55 55 56 56 57 58 57 57 57 58
38 38 38 39 40 40 41 41 42 42 43 44 44 45 46 47 46 47 48 47 47 47 48 49 51 51 51 52 52 53 54 54 55 55 56 56 56 56 57 57 57 57 57
38 38 39 39 40 41 41 42 43 43 43 44 44 45 45 46 47 48 48 48 48 49 49 49 50 51 51 51 53 53 54 54 54 55 56 56 56 56 56 56 56 57 56
38 38 38 40 40 40 41 41 42 43 44 45 45 45 45 45 47 47 48 48 48 49 50 50 50 51 51 51 52 52 52 53 54 55 55 54 54 55 55 56 56 55 55
39 38 38 39 40 40 40 41 41 43 44 45 46 46 46 46 46 47 47 48 49 49 50 50 50 50 51 51 52 52 52 52 53 53 54 55 54 53 54 55 55 54 53
39 39 38 39 39 40 40 41 42 43 44 45 45 45 46 46 46 46 47 48 49 49 49 49 49 50 51 52 53 53 53 52 52 53 53 54 54 53 52 53 53 53 52
39 39 39 39 40 40 40 41 42 43 44 44 44 45 45 46 46 47 48 48 49 49 49 49 49 50 52 52 52 52 54 53 53 53 53 51 51 51 52 51 50 51 51
39 39 40 40 41 41 41 41 42 43 44 44 45 45 46 47 48 48 48 49 48 48 49 50 50 51 51 52 52 53 53 53 53 52 52 51 50 50 50 50 50 51 51
39 40 40 41 41 42 42 42 42 43 43 44 45 46 47 48 49 49 49 48 49 49 49 49 50 50 51 52 53 53 52 52 52 51 51 50 49 48 49 49 49 50 51
39 40 41 41 42 42 42 42 43 43 44 44 46 47 48 48 49 49 49 49 49 49 50 50 50 49 50 51 51 52 51 51 50 49 50 49 48 49 48 48 48 48 49
40 40 41 41 42 42 43 43 43 43 44 45 47 47 48 49 49 48 47 47 47 47 47 49 49 49 49 49 49 49 49 49 48 47 47 47 47 47 48 48 48 48 47
41 41 41 42 42 42 43 44 44 44 45 46 47 47 47 47 47 46 46 45 45 45 45 46 47 48 48 47 47 47 47 47 46 45 45 45 46 46 47 48 48 48 46
42 42 42 42 42 42 43 43 44 45 45 45 45 45 45 45 44 44 44 44 44 43 43 44 44 44 44 44 44 45 45 45 44 44 44 44 44 44 45 45 45 45 44
41 41 41 41 41 42 42 43 43 43 43 44 44 44 44 43 43 43 44 44 44 43 42 42 42 42 41 41 42 43 43 42 42 41 41 42 43 42 42 42 42 41 40
40 40 40 41 41 42 42 43 43 43 42 43 43 43 43 43 43 42 42 42 42 42 41 40 40 39 39 39 39 41 41 41 40 39 39 40 40 40 40 39 38 38 39
39 40 40 41 41 42 43 43 42 42 42 42 42 41 41 41 42 42 41 41 41 40 40 40 39 38 37 37 38 38 38 38 37 36 36 36 36 36 36 36 36 36 37
40 40 41 41 42 42 43 42 42 42 41 41 41 41 41 40 40 39 39 39 38 38 38 37 37 36 35 34 34 34 34 34 34 34 33 33 34 34 33 33 33 34 35
40 40 41 42 42 42 42 41 41 41 41 41 40 40 39 39 38 38 37 36 35 35 34 33 32 31 31 30 30 29 30 30 30 31 31 30 30 31 31 32 32 32 32
40 41 41 41 40 41 41 41 41 40 40 40 39 38 38 37 37 36 35 35 34 33 32 32 31 29 29 28 27 28 28 28 29 29 29 29 30 31 31 31 31 31 31

GEFSMW_500_meanwind_210.txt.gz
Wind_Speed
37 37 38 38 38 38 38 38 38 39 39 40 41 42 43 43 43 43 44 44 45 45 47 47 48 49 49 49 49 49 49 49 49 49 48 48 48 48 47 47 47 47 47
36 38 38 38 38 38 38 38 39 39 39 40 42 43 44 44 45 45 45 46 46 47 48 49 50 50 51 50 51 51 51 51 51 51 51 51 50 49 48 48 48 48 48
37 38 38 38 38 37 38 39 39 40 40 41 43 44 44 46 46 46 46 47 48 49 49 50 50 51 52 52 51 52 52 51 51 52 52 52 51 51 50 49 49 49 50
37 38 38 38 38 38 39 40 40 41 41 42 44 45 46 47 47 48 48 48 48 49 50 50 51 52 52 53 52 52 53 54 53 53 53 53 53 52 52 50 50 49 50
38 38 39 39 39 39 39 40 41 42 43 44 45 46 47 47 48 48 49 49 49 50 51 51 52 52 52 53 53 54 54 54 54 53 53 53 53 53 53 52 50 50 50
38 39 39 40 40 40 40 41 42 43 43 44 45 46 47 47 48 48 49 50 50 50 52 52 52 52 52 53 53 54 54 54 54 54 54 54 54 53 53 53 53 52 51
38 39 39 40 40 41 42 42 43 43 43 45 46 46 47 48 49 49 50 51 52 51 51 51 51 51 51 52 53 53 54 54 54 54 54 54 54 54 54 54 55 55 53
39 39 40 40 41 41 43 43 44 44 45 46 47 48 48 49 49 50 50 51 51 51 50 51 51 51 51 51 52 53 54 54 54 54 54 53 54 54 54 54 55 55 54
39 40 41 41 42 42 43 44 45 45 46 47 47 48 48 48 49 49 50 50 50 50 50 51 51 51 51 51 51 52 53 54 54 54 54 53 53 53 52 53 54 56 55
40 40 40 41 42 43 44 45 45 46 46 46 47 47 47 48 48 49 49 50 50 50 49 50 50 50 51 52 52 51 51 52 52 53 53 53 53 52 52 52 53 53 53
41 41 41 42 43 44 44 45 45 46 46 46 46 47 48 48 48 49 49 49 49 49 49 49 50 51 52 52 52 51 51 51 51 52 53 53 53 53 52 51 50 50 51
41 41 41 42 43 44 44 45 45 45 45 46 46 47 47 47 48 48 48 48 49 49 49 50 50 51 51 52 52 52 51 52 52 52 53 52 52 52 52 50 50 50 51
41 42 42 43 44 45 45 44 45 45 45 46 46 46 46 46 47 47 47 48 49 49 50 50 50 51 51 51 51 51 51 51 52 52 52 52 52 52 52 51 50 50 50
42 42 43 44 45 45 44 44 44 44 44 44 45 45 45 45 46 46 47 48 49 50 50 50 49 50 50 50 50 50 50 51 51 51 52 52 52 52 51 51 50 49 49
43 43 43 44 44 43 43 44 44 44 44 44 43 43 44 44 44 45 47 48 49 49 50 50 50 49 49 50 50 50 50 51 51 51 51 52 51 51 51 51 51 50 49
44 44 44 43 43 43 43 43 43 43 42 43 43 43 44 44 44 45 47 48 48 48 49 49 50 49 49 49 50 51 50 50 50 50 50 51 51 51 50 51 51 50 49
43 43 42 42 42 42 42 42 42 42 42 43 43 43 44 44 45 45 46 47 47 48 49 49 50 49 49 49 50 51 50 49 50 49 49 49 49 49 49 49 50 50 49
42 41 42 42 42 42 42 42 42 42 43 43 44 44 44 44 45 46 47 48 48 49 49 49 49 49 49 48 49 49 49 49 48 48 48 47 46 46 47 48 49 48 47
41 41 42 41 41 41 40 41 41 42 42 42 43 44 45 45 45 46 47 49 49 49 48 48 48 48 48 48 48 48 47 47 46 46 46 45 44 44 44 44 44 43 43
40 41 41 41 40 40 40 40 40 41 41 42 43 44 45 45 45 46 47 47 47 47 47 46 47 47 47 47 47 47 47 46 45 44 43 43 42 41 41 40 40 40 40
40 40 41 41 39 39 39 40 41 42 42 43 43 44 44 45 45 45 46 47 47 47 46 47 47 46 46 46 46 46 45 44 43 42 41 40 39 38 38 39 38 38 38
39 40 40 39 39 40 40 40 41 42 42 43 43 43 44 44 44 45 45 46 46 46 46 46 45 45 45 45 45 45 44 42 41 40 39 37 37 36 37 37 36 37 37
38 39 39 39 40 40 40 40 41 42 42 42 42 43 43 44 44 45 45 45 46 45 45 44 43 43 43 42 42 41 40 39 38 38 37 36 35 35 35 35 35 35 35
38 38 38 38 39 40 40 41 42 42 42 42 42 42 42 43 44 44 44 44 44 43 43 42 42 41 39 39 38 37 36 35 35 35 34 33 33 33 33 33 32 32 32
38 38 38 38 39 40 41 41 41 41 41 42 42 41 42 42 43 43 43 42 41 42 41 40 38 36 35 34 34 33 31 31 31 31 31 31 32 32 32 31 31 30 30
38 39 39 39 39 40 40 41 41 41 41 42 42 42 42 42 41 41 40 39 39 38 38 36 35 34 32 31 30 29 28 28 28 28 28 29 29 28 28 29 29 29 29

GEFSMW_500_meanwind_216.txt.gz
Wind_Speed
36 37 37 37 38 39 39 39 39 39 39 39 40 40 40 40 41 42 43 44 44 45 46 46 47 47 47 47 47 48 48 48 49 50 50 49 49 49 49 48 48 48 47
38 38 38 38 38 38 39 39 39 40 40 41 40 41 41 41 41 42 43 44 45 46 47 48 48 48 49 50 50 50 50 50 51 52 52 52 51 51 50 50 50 49 49
38 38 38 37 38 38 39 39 40 40 40 41 41 41 42 42 42 43 44 44 45 47 48 49 49 49 50 50 50 51 52 52 53 53 54 54 54 53 52 52 51 51 52
38 38 38 38 38 38 39 40 40 40 40 41 42 42 43 43 43 43 44 45 46 48 49 50 50 50 50 51 52 52 53 54 54 54 55 56 56 56 54 53 53 53 54
37 37 38 38 38 39 40 40 40 41 41 42 42 43 43 44 44 43 44 45 46 47 48 49 50 50 51 51 53 54 55 55 55 56 56 57 57 58 57 55 54 54 55
38 37 38 39 39 39 39 39 40 41 42 42 42 43 43 43 44 44 45 46 47 48 49 50 50 51 51 52 53 55 55 56 56 57 57 57 57 57 57 56 55 54 54
38 38 38 38 38 38 39 39 40 41 42 42 42 43 44 44 45 45 46 47 47 47 49 50 51 52 52 52 53 54 55 56 56 56 56 56 56 56 56 57 56 55 54
37 38 38 38 37 38 39 40 41 41 42 43 43 44 45 46 46 46 47 47 48 48 50 51 51 51 52 53 53 54 55 55 54 54 55 55 54 55 55 56 57 57 55
37 38 38 38 38 39 40 41 41 41 42 43 43 44 46 47 47 47 48 49 49 51 51 52 52 52 53 53 53 53 54 54 54 54 54 54 55 55 55 56 56 57 56
37 38 38 39 39 40 41 41 41 42 43 44 44 45 46 47 47 48 49 50 50 51 51 51 52 52 53 53 53 52 53 53 54 54 54 54 54 55 55 56 56 57 57
38 38 39 40 40 41 41 41 42 42 43 44 46 46 46 46 48 49 49 50 50 50 50 50 51 52 52 52 53 52 53 53 53 53 53 53 54 54 54 55 55 56 56
37 38 39 40 40 40 41 42 42 43 44 45 46 46 47 47 48 49 49 49 50 50 50 50 50 50 50 50 51 51 51 52 52 52 53 54 54 54 54 54 54 55 55
37 38 39 39 39 40 41 42 43 43 44 46 47 47 47 48 48 49 49 49 50 50 49 49 49 49 49 50 49 49 50 51 52 52 52 53 53 53 53 53 53 54 54
38 38 39 39 40 40 41 43 43 44 44 45 46 47 47 48 49 50 51 51 50 49 48 48 49 49 49 48 48 49 49 50 51 51 51 52 53 52 52 52 52 52 53
38 39 40 40 41 42 42 43 43 43 44 45 46 47 48 48 49 49 50 49 48 48 47 47 48 49 48 49 49 49 49 50 51 51 50 51 51 52 52 52 52 51 51
40 40 41 42 42 42 42 42 43 44 44 45 45 46 47 48 48 48 47 47 47 47 47 46 47 48 48 49 50 50 50 50 50 50 50 50 50 50 50 50 50 50 50
41 41 41 41 42 42 42 43 43 43 44 44 45 45 46 46 46 46 46 46 46 46 46 47 48 48 48 49 50 51 51 50 49 49 49 49 48 48 49 49 49 50 49
41 42 42 42 42 42 42 42 42 42 43 43 44 44 45 45 44 44 44 45 45 45 46 46 48 49 49 49 49 50 50 49 49 50 49 48 48 48 48 48 49 49 48
40 40 41 41 41 40 40 41 41 42 43 43 43 43 43 43 43 43 43 44 45 45 46 47 48 48 48 48 48 48 48 48 48 48 48 48 47 47 48 48 47 47 46
39 40 40 40 40 40 41 41 41 42 42 41 42 42 42 42 43 43 43 44 45 45 45 45 46 47 47 47 48 49 48 48 47 47 47 47 47 47 46 45 45 44 42
38 38 39 39 40 40 41 40 41 41 40 40 41 42 42 42 43 43 44 44 44 44 44 45 45 45 46 46 48 48 48 48 47 46 46 46 45 44 43 42 41 39 39
37 37 38 39 39 39 39 39 40 40 39 40 41 41 41 42 42 42 43 43 43 43 43 43 44 44 45 45 45 45 46 46 45 44 44 44 42 41 39 38 38 37 36
36 37 38 38 38 38 38 39 39 39 39 40 40 41 41 41 41 41 42 43 43 43 43 43 43 43 44 44 44 44 43 43 43 42 41 40 39 37 36 36 35 34 34
36 36 36 36 36 37 37 38 38 39 39 39 39 40 40 40 40 41 42 42 42 42 42 42 42 42 42 42 42 41 39 39 39 38 36 36 34 33 33 33 33 32 32
35 35 36 36 37 37 37 38 38 38 39 39 39 39 39 40 40 41 41 41 42 42 41 41 41 41 39 39 39 38 37 36 35 33 31 30 30 30 30 30 30 30 30
36 36 37 37 37 37 37 38 38 38 39 39 39 39 39 40 40 40 40 41 41 40 40 39 39 38 37 36 35 34 33 32 30 29 28 27 26 27 28 28 29 29 30

GEFSMW_500_meanwind_222.txt.gz
Wind_Speed
36 36 36 37 37 37 38 38 38 39 39 40 40 41 41 41 41 41 42 42 42 43 43 44 45 46 47 48 47 48 49 49 50 49 49 49 49 49 49 49 49 49 50
37 37 37 38 38 39 39 39 39 40 40 41 41 42 42 43 43 42 43 43 43 44 44 45 46 47 48 49 49 49 50 51 51 52 51 51 51 51 51 51 51 52 52
37 38 38 39 39 39 40 40 40 41 41 42 42 43 43 44 44 44 44 44 45 45 45 46 47 47 48 49 50 50 51 51 52 53 54 54 54 53 52 53 53 54 55
38 39 39 40 40 41 41 41 42 42 43 43 43 44 44 44 44 45 45 46 46 46 46 46 48 49 49 49 50 51 52 52 53 54 55 56 57 56 55 54 55 56 56
39 40 41 41 41 41 41 42 42 42 43 44 44 44 44 45 45 46 46 46 47 47 47 47 48 49 50 51 51 51 52 53 54 55 56 57 58 59 59 57 56 56 57
41 41 41 41 41 41 41 42 42 42 42 43 44 45 45 46 46 47 47 48 48 48 48 49 49 49 50 51 52 52 53 54 55 56 56 57 58 59 59 58 57 56 56
42 42 42 42 41 41 42 42 42 42 43 43 44 45 46 46 46 47 48 49 49 49 49 49 49 50 50 51 52 52 53 54 55 56 56 57 58 58 58 58 57 57 56
41 41 41 42 42 42 42 42 42 42 43 43 43 44 46 47 47 48 49 49 50 50 50 49 50 50 51 52 52 53 54 54 54 54 55 56 56 57 57 56 57 57 55
40 41 41 41 41 41 42 42 41 42 42 43 44 45 46 47 47 48 49 50 50 50 49 50 50 51 52 53 53 54 54 54 54 54 54 54 54 55 56 57 57 57 56
40 40 40 40 41 42 42 42 42 42 43 44 45 46 46 47 48 49 49 49 49 50 50 51 51 51 52 52 53 54 54 53 54 54 54 54 54 55 55 56 57 57 57
39 40 39 40 41 41 41 41 42 42 43 44 45 46 47 48 48 49 50 50 49 50 50 51 51 52 53 53 54 53 53 53 54 54 54 55 55 56 56 56 55 55 56
39 40 40 40 41 41 42 42 42 43 44 45 46 47 47 48 48 49 49 49 50 51 51 52 52 53 53 53 53 53 53 53 54 54 55 55 56 55 54 55 55 55 55
38 39 40 41 41 41 42 42 43 44 45 46 46 47 47 48 48 49 50 50 50 51 51 52 52 52 53 53 53 52 53 53 53 54 54 55 55 55 54 54 54 54 54
38 39 40 41 41 41 41 42 43 44 45 45 46 46 47 47 48 49 50 50 50 51 51 52 52 53 53 53 53 53 53 53 53 53 53 53 53 53 53 53 53 53 53
39 40 40 40 40 41 41 42 43 44 45 45 45 46 46 47 48 49 49 50 51 51 51 52 53 53 53 53 53 53 53 53 52 52 51 51 52 53 53 53 52 53 53
39 39 39 38 39 40 40 41 42 43 43 44 45 45 46 47 48 48 49 50 50 51 51 51 51 52 52 53 53 53 52 52 51 50 50 50 51 52 53 52 52 52 52
39 39 39 39 40 40 41 41 41 42 43 44 45 45 46 47 47 48 48 49 49 49 49 50 50 51 51 51 52 52 51 50 49 49 50 50 51 52 52 51 51 51 51
39 40 40 39 40 40 41 42 43 43 43 44 45 46 47 47 47 47 47 48 48 49 49 49 50 50 51 51 50 50 48 48 48 49 49 50 50 51 51 51 50 49 49
39 40 40 40 41 41 42 42 43 43 43 44 45 46 46 45 45 45 46 47 47 47 47 49 49 49 48 48 48 48 47 47 48 48 49 49 49 49 50 49 49 48 48
40 40 40 40 40 41 41 41 41 42 43 43 44 44 44 44 44 45 45 45 45 45 46 47 47 47 46 46 46 46 46 46 46 46 47 48 48 48 47 47 47 47 47
40 40 39 40 40 40 41 41 41 42 42 42 43 43 43 43 43 43 43 43 43 45 45 45 45 45 45 45 45 45 45 45 44 44 45 45 46 45 45 45 45 45 44
39 39 39 39 39 40 40 40 40 41 42 42 42 42 42 42 42 42 42 42 43 44 44 43 43 43 43 43 43 44 44 45 44 44 44 44 43 42 42 42 42 41 40
38 38 39 38 39 39 39 39 40 40 41 41 41 41 41 41 41 41 41 42 42 43 42 42 42 42 43 43 43 44 44 43 44 44 44 42 41 40 39 38 37 37 36
37 37 37 38 38 38 38 39 39 39 39 40 40 40 40 40 40 41 41 41 41 42 41 41 41 41 42 42 42 43 42 42 42 42 41 39 38 36 36 35 35 34 33
36 36 37 37 38 38 38 38 38 38 38 38 39 39 39 39 39 40 40 40 41 41 41 40 41 41 41 41 42 42 41 41 40 39 36 35 35 35 34 33 32 31 30
35 36 37 37 37 37 37 37 37 37 37 37 37 37 38 39 39 40 40 40 40 41 41 41 41 41 41 41 40 40 39 38 37 36 34 33 33 33 32 30 29 28 28

GEFSMW_500_meanwind_228.txt.gz
Wind_Speed
37 37 36 35 35 35 35 34 34 34 35 35 36 36 37 37 38 38 39 39 40 40 41 41 41 42 43 44 44 44 45 46 47 47 48 48 49 49 49 49 49 48 49
39 38 37 36 36 36 36 36 35 36 36 37 37 38 38 38 39 40 41 41 42 42 43 44 44 44 44 44 45 45 46 47 47 48 49 50 50 50 50 50 50 50 51
39 39 38 37 37 36 36 36 36 37 37 38 38 39 39 40 41 41 42 43 44 44 45 45 46 46 46 46 46 46 46 47 48 49 50 50 51 51 51 51 52 52 53
39 39 39 38 37 37 37 37 38 38 38 38 39 40 40 41 42 43 43 44 45 45 46 46 47 47 48 48 48 48 49 49 49 50 50 51 52 53 53 53 53 54 55
40 40 39 39 38 38 38 38 39 39 39 39 40 41 42 42 43 44 45 45 45 46 46 47 47 48 48 49 50 50 51 50 50 50 51 52 53 54 55 55 56 56 57
40 40 39 39 39 39 39 39 40 40 40 41 41 42 43 44 44 45 45 45 45 46 47 48 49 49 50 50 51 51 51 51 51 52 53 54 55 56 57 57 57 57 56
40 40 39 39 39 39 40 41 41 41 41 42 42 43 44 44 44 45 45 46 46 46 47 48 49 50 50 51 52 52 53 53 53 54 55 56 57 57 57 57 57 56 56
39 39 39 40 40 40 40 41 41 41 41 42 43 43 44 44 45 45 46 46 46 46 48 49 50 51 51 52 53 53 54 54 54 55 56 56 56 56 56 57 57 57 56
39 39 40 40 40 40 40 41 41 41 42 42 43 44 44 44 45 46 46 46 46 47 48 50 51 51 52 53 54 54 54 54 55 55 56 56 56 56 57 57 57 57 57
38 39 40 40 40 40 40 41 41 42 42 43 43 43 44 44 45 45 46 46 47 47 48 50 51 52 52 53 54 55 56 56 56 56 56 56 56 56 56 56 57 57 58
38 39 39 40 40 40 41 41 41 42 42 42 43 43 44 44 45 45 46 47 47 48 49 51 51 52 53 53 54 54 54 55 55 55 55 55 55 55 55 56 56 57 57
38 38 39 39 40 40 41 41 41 42 42 42 42 42 43 44 44 46 47 47 48 48 50 50 51 52 52 53 53 54 54 54 54 53 54 54 54 54 55 55 56 56 56
38 38 39 39 40 40 40 41 41 42 42 42 42 43 43 44 45 46 46 47 47 49 49 50 51 51 52 52 53 54 54 53 53 53 53 53 53 54 55 55 55 55 55
38 38 38 39 39 40 40 41 41 41 42 42 42 43 43 44 45 46 46 46 47 48 49 50 50 51 52 53 54 54 53 53 53 53 53 53 53 53 53 53 53 53 54
37 38 38 39 39 39 40 40 41 41 42 42 43 43 44 45 45 46 46 47 48 49 49 50 50 51 52 52 53 53 53 53 53 52 52 52 52 51 52 52 52 52 52
38 38 39 39 39 39 39 39 40 41 42 42 43 44 44 45 45 46 46 47 48 49 49 50 50 51 51 52 52 52 52 52 52 51 51 51 51 51 51 51 51 51 51
39 40 40 40 40 40 40 40 40 41 42 42 43 43 44 45 45 46 46 47 48 48 49 50 50 51 51 52 52 52 52 51 51 50 50 50 51 50 50 50 50 51 51
41 41 40 40 39 39 39 39 40 40 40 41 42 43 44 45 46 47 47 48 48 48 49 49 50 50 50 51 51 51 50 49 49 49 50 50 50 50 50 50 50 50 51
40 39 39 39 38 39 39 39 39 40 41 41 43 43 44 45 45 46 47 47 48 48 49 49 49 49 49 49 49 49 49 49 49 50 50 50 50 49 50 49 49 48 48
39 39 38 39 39 39 39 39 40 40 41 41 42 43 44 44 45 45 46 46 47 47 48 48 47 47 47 48 48 49 48 48 49 49 49 49 48 48 48 47 47 46 45
37 37 37 38 38 39 40 40 40 40 41 41 42 42 43 43 44 44 45 45 45 45 45 45 46 46 47 47 47 48 48 48 47 47 47 46 46 46 46 46 45 44 43
36 36 36 37 38 38 39 40 40 40 41 41 41 41 42 42 43 43 43 43 43 43 43 44 44 44 45 46 46 46 46 46 45 45 45 45 45 44 44 44 43 43 43
35 36 36 37 38 39 39 40 40 40 40 40 40 40 40 41 41 41 41 41 41 41 42 42 43 43 43 44 44 44 43 43 44 44 44 43 43 42 42 42 41 41 41
36 37 37 38 38 38 38 38 38 38 38 38 38 39 39 39 39 39 39 39 40 41 41 41 41 42 42 42 42 42 42 42 43 43 42 42 42 41 40 40 39 39 38
36 36 36 36 36 36 36 36 37 37 37 37 37 37 37 37 37 38 38 39 39 40 39 39 40 41 41 41 41 41 41 41 41 41 41 41 40 39 39 38 38 37 36
34 35 35 34 35 35 35 36 36 35 35 35 35 35 36 36 37 37 37 38 38 38 38 39 39 40 40 40 39 39 40 40 40 40 40 38 38 38 37 37 36 35 34

GEFSMW_500_meanwind_234.txt.gz
Wind_Speed
36 36 36 36 35 35 35 35 34 34 35 35 35 34 34 34 35 35 36 36 37 37 37 37 38 38 39 40 40 41 41 42 43 43 43 44 45 45 45 45 45 46 46
38 37 37 37 37 37 37 37 36 36 36 36 35 36 36 36 36 37 37 37 38 38 39 39 39 40 41 41 42 42 43 44 44 45 45 45 45 45 46 46 47 47 48
39 38 38 38 38 38 38 38 38 38 37 37 37 37 38 38 38 38 38 38 39 40 40 41 41 42 42 43 43 44 44 45 46 46 47 47 46 46 46 47 47 48 49
41 40 39 39 39 39 39 39 39 39 39 39 39 39 39 39 39 39 40 40 41 41 42 42 43 43 43 43 44 45 45 46 47 48 49 49 49 49 48 48 49 49 50
41 41 40 40 40 40 40 40 40 40 41 41 40 40 40 40 40 41 41 42 42 42 43 43 43 43 44 44 45 46 46 47 48 49 49 50 50 51 52 51 51 51 52
42 42 41 41 41 41 41 41 41 42 42 42 42 41 41 42 42 42 43 42 42 42 43 43 44 45 46 46 46 47 47 48 49 50 51 51 52 52 53 53 53 53 53
42 42 42 42 42 42 42 42 42 43 43 43 43 43 42 43 43 43 44 44 43 43 44 44 45 46 47 47 47 47 48 50 51 51 52 53 53 54 54 55 55 54 53
43 43 43 43 43 43 43 43 43 43 43 43 43 43 43 44 44 44 45 45 44 44 45 46 47 47 48 48 48 49 50 51 51 52 53 54 54 54 55 56 57 56 55
42 42 43 43 42 42 43 43 43 43 44 43 44 44 44 44 45 45 46 46 46 46 47 48 48 48 48 49 50 50 51 52 52 53 54 55 55 55 56 57 58 58 57
40 41 42 42 42 42 43 43 43 43 44 44 44 44 44 45 46 46 47 47 47 48 49 49 48 49 49 50 51 51 52 53 53 54 54 55 56 56 57 57 58 58 58
41 41 41 41 41 42 43 43 43 44 44 44 44 44 44 45 46 47 47 48 48 49 49 49 49 50 50 51 52 52 53 53 53 54 55 55 56 56 57 57 57 57 58
41 41 41 41 41 42 43 43 43 44 44 44 44 44 45 46 46 47 47 48 49 49 49 50 50 50 50 51 52 52 52 53 53 54 55 55 55 56 56 56 56 57 57
41 41 41 41 42 42 42 42 43 43 44 44 44 45 46 46 47 47 48 49 49 49 49 49 49 50 50 51 52 52 52 53 54 54 54 54 54 55 55 56 56 57 57
41 40 41 40 41 41 42 42 42 43 43 44 44 45 46 47 47 48 48 48 48 48 48 48 49 49 50 51 52 52 52 52 53 54 54 54 54 54 55 55 56 56 56
39 40 40 41 41 41 42 42 42 42 43 43 44 45 46 47 47 48 48 47 47 47 48 48 48 49 50 51 52 52 52 53 53 53 53 53 54 54 54 55 55 55 56
38 38 39 40 40 40 41 42 42 42 42 43 44 45 46 46 47 47 47 47 47 47 47 47 48 50 50 50 51 51 52 52 52 52 52 52 53 53 54 55 55 55 56
37 37 38 39 39 40 40 41 41 42 42 43 44 45 46 46 46 46 46 46 47 47 47 48 49 49 50 50 51 51 51 51 51 51 51 51 52 52 53 54 54 55 56
38 38 38 38 39 40 40 40 41 42 43 43 44 45 45 46 46 46 47 47 47 48 48 48 48 49 49 49 50 51 51 51 51 51 51 51 51 52 53 54 54 55 55
39 39 39 39 40 41 41 41 41 42 42 43 44 45 46 46 45 45 46 47 47 47 47 48 48 49 49 49 50 50 50 50 50 50 51 52 52 53 54 54 54 54 53
40 40 40 41 41 42 42 43 43 43 43 44 44 45 45 45 45 45 46 46 47 47 47 47 47 48 48 48 48 48 49 49 49 50 51 52 53 53 53 53 52 52 51
41 41 41 42 42 42 42 42 42 42 42 43 43 43 43 43 44 44 45 46 46 46 46 46 46 46 46 46 46 47 48 49 49 50 50 51 51 51 50 50 50 50 49
41 41 41 41 41 42 42 42 42 42 42 42 42 42 42 42 43 44 44 43 43 44 44 44 44 45 45 46 46 47 48 49 49 49 50 50 49 49 49 49 48 48 46
40 40 41 41 41 41 41 42 42 42 41 41 41 41 41 41 41 42 41 42 42 42 43 42 42 43 44 45 45 45 46 47 47 48 49 48 47 47 46 47 46 44 43
38 39 40 40 40 40 40 40 40 40 39 40 40 40 40 40 40 40 40 40 41 41 41 42 42 42 43 44 44 44 44 45 46 46 45 45 45 44 44 44 43 42 41
36 36 37 38 38 37 38 38 38 38 38 38 38 38 38 38 38 38 38 38 39 39 40 40 40 41 41 42 43 43 44 44 44 43 42 42 42 42 42 42 41 40 40
33 34 35 35 35 36 36 36 36 37 36 36 36 36 36 36 36 36 36 37 37 37 38 39 39 40 41 41 41 42 42 42 41 41 40 40 40 40 40 40 39 39 39

GEFSMW_500_meanwind_240.txt.gz
Wind_Speed
35 34 34 33 32 32 33 33 32 32 32 33 33 33 33 33 33 33 33 34 34 34 34 35 35 36 36 37 37 37 37 37 38 38 39 39 40 40 41 41 42 42 43
37 36 34 34 33 33 33 33 33 33 34 34 34 34 34 35 35 35 35 35 35 35 35 36 36 37 38 38 39 39 39 39 39 40 40 41 41 42 42 43 43 44 44
38 37 36 35 34 34 34 35 35 35 35 35 35 35 35 36 36 36 36 36 36 36 36 37 38 38 39 40 40 40 40 40 41 41 42 43 42 42 43 44 45 45 46
39 38 38 37 36 36 36 36 36 37 36 36 36 36 37 37 37 37 37 37 37 37 38 38 39 39 40 41 41 41 41 42 43 43 44 45 45 45 45 45 46 47 48
40 39 39 38 38 38 37 37 37 38 38 38 38 38 38 38 38 38 38 38 38 39 39 40 40 41 41 42 42 42 42 43 44 45 45 46 47 48 48 47 47 47 48
40 40 39 39 39 39 39 39 38 38 39 39 39 39 39 39 39 39 39 40 40 40 40 41 41 42 43 43 44 43 44 45 46 47 47 48 48 48 49 49 48 49 49
41 41 41 41 40 40 40 40 40 40 40 40 40 40 40 40 40 41 41 41 41 42 42 42 43 43 44 45 45 45 45 46 47 48 49 49 50 50 51 51 51 51 51
40 41 42 42 42 42 41 41 41 40 41 41 41 42 42 42 42 42 42 43 43 43 43 44 44 45 46 46 46 46 47 48 49 49 50 50 51 52 52 53 53 53 52
40 40 41 41 41 41 41 42 42 42 42 42 42 43 43 43 43 43 44 44 44 45 45 45 45 46 47 47 48 48 48 49 49 50 51 52 52 53 53 54 55 56 56
40 40 40 41 41 42 42 43 43 43 42 43 43 43 43 44 44 44 44 45 45 45 45 46 46 47 48 49 49 49 50 51 51 51 52 53 53 54 55 56 57 57 58
39 39 40 40 41 42 42 42 42 42 43 43 43 43 43 44 44 44 44 45 45 45 46 47 48 48 49 50 51 51 52 52 52 53 54 54 54 55 55 56 57 57 58
39 39 40 39 39 40 41 42 42 42 42 42 43 43 43 44 44 44 45 45 46 46 47 48 49 49 50 51 51 52 52 53 54 54 55 54 54 55 56 57 57 56 56
39 40 40 41 40 40 40 41 41 41 41 41 42 42 43 44 44 44 45 45 46 47 48 48 50 50 51 51 52 52 52 53 53 54 54 54 55 55 56 56 55 55 55
39 40 40 41 40 40 40 40 40 40 41 41 41 42 43 44 44 45 45 46 47 48 48 49 50 50 51 51 51 51 51 52 53 53 54 54 54 54 55 55 55 55 55
38 38 38 39 40 40 40 40 40 41 41 41 41 41 42 44 44 45 46 47 48 49 49 49 50 50 50 50 51 51 51 52 52 53 53 53 53 53 53 53 53 54 55
37 37 37 38 39 40 40 40 41 41 41 42 42 43 43 44 44 45 46 48 48 49 49 49 49 49 49 50 51 51 51 52 52 52 52 51 51 51 52 52 53 54 55
36 36 37 37 38 39 40 40 41 41 42 42 43 43 44 44 44 46 47 47 48 48 47 48 49 49 50 50 51 51 52 52 52 51 50 50 50 50 51 51 53 54 55
36 36 37 37 37 38 39 40 41 42 42 43 43 44 44 45 45 45 45 45 46 47 47 48 48 49 50 50 50 50 50 50 50 49 49 49 49 50 50 51 52 52 53
36 36 37 37 37 37 38 39 40 41 42 42 43 44 44 44 45 45 45 45 46 46 47 47 47 48 49 49 49 49 49 49 48 48 49 50 50 50 51 51 51 52 52
37 36 36 36 37 36 37 37 39 40 41 42 43 43 44 45 45 45 45 45 46 46 46 46 46 47 47 47 48 48 47 47 47 48 49 49 50 50 51 52 52 52 51
37 37 37 37 37 37 37 38 38 39 40 41 42 42 43 44 44 45 45 45 46 45 45 45 45 46 46 45 46 46 46 46 46 47 47 48 49 50 51 51 50 49 48
37 37 37 37 37 38 38 38 39 39 40 41 42 43 43 44 44 44 44 45 45 45 44 44 44 44 44 44 45 45 45 45 45 46 46 47 48 49 49 48 48 47 46
36 37 38 38 38 39 39 39 39 40 40 41 42 42 41 42 43 43 43 43 43 43 42 41 41 41 42 43 43 43 44 45 45 45 46 46 47 47 46 46 45 45 44
37 38 38 38 39 39 39 39 38 39 40 40 40 40 40 41 41 41 41 41 41 41 40 39 40 40 41 42 42 43 44 44 45 44 44 45 44 44 44 44 43 43 43
37 37 38 39 39 39 38 38 38 38 38 39 39 39 39 39 39 39 39 39 39 39 38 38 39 39 40 40 40 41 41 42 42 42 42 43 42 42 42 42 41 42 42
36 36 36 37 37 37 37 37 37 37 37 37 37 37 37 38 38 38 38 38 38 38 38 39 39 39 38 38 38 39 40 40 41 40 40 40 41 40 40 40 41 41 42